Wetterdaten: aktuell Mittwoch, 11.12.2019 20:26
Datum Zeit Temp. I. Temp.Rudling Temp. 2m Temp. 5cm Feuchte I. Feuchte Rud. Feuchte 2m Luftdruck Regen Wind Richtung Richtung Taupunkt Windchill Windben
11.12.2019 20:26 24,7 C -2,1 C -0,8 C -3,1 C 45 % 83 % 76 % 1010,1 hPa 0,0 l/m 0,0 km/h (0 Bft) NW 315 -4,5 C -0,8 C 0,0 km/h (0 Bft)
11.12.2019 20:24 24,7 C -2,1 C -0,9 C -3,2 C 45 % 83 % 76 % 1010,1 hPa 0,0 l/m 0,0 km/h (0 Bft) NW 315 -4,6 C -0,9 C 0,0 km/h (0 Bft)
11.12.2019 20:22 24,7 C -2,1 C -0,9 C -3,2 C 45 % 83 % 76 % 1010,1 hPa 0,0 l/m 0,0 km/h (0 Bft) NW 315 -4,6 C -0,9 C 0,0 km/h (0 Bft)
11.12.2019 20:20 24,7 C -2,1 C -0,8 C -3,2 C 45 % 83 % 76 % 1009,8 hPa 0,0 l/m 0,0 km/h (0 Bft) NW 315 -4,5 C -0,8 C 0,0 km/h (0 Bft)
11.12.2019 20:18 24,7 C -2,1 C -0,8 C -3,2 C 45 % 83 % 76 % 1009,8 hPa 0,0 l/m 0,0 km/h (0 Bft) NW 315 -4,5 C -0,8 C 0,0 km/h (0 Bft)
11.12.2019 20:16 24,7 C -2,1 C -0,8 C -3,2 C 45 % 83 % 76 % 1009,8 hPa 0,0 l/m 0,0 km/h (0 Bft) NW 315 -4,5 C -0,8 C 0,0 km/h (0 Bft)
11.12.2019 20:14 24,7 C -2,1 C -0,8 C -3,3 C 45 % 83 % 76 % 1009,8 hPa 0,0 l/m 0,0 km/h (0 Bft) NW 315 -4,5 C -0,8 C 0,0 km/h (0 Bft)
11.12.2019 20:12 24,7 C -2,1 C -0,8 C -3,3 C 45 % 83 % 75 % 1009,8 hPa 0,0 l/m 0,0 km/h (0 Bft) NW 315 -4,7 C -0,8 C 0,0 km/h (0 Bft)
11.12.2019 20:10 24,7 C -2,1 C -0,6 C -3,2 C 45 % 83 % 75 % 1009,8 hPa 0,0 l/m 0,0 km/h (0 Bft) NW 315 -4,5 C -0,6 C 0,0 km/h (0 Bft)
11.12.2019 20:08 24,7 C -1,9 C -0,6 C -3,3 C 45 % 83 % 75 % 1009,8 hPa 0,0 l/m 0,0 km/h (0 Bft) NW 315 -4,5 C -0,6 C 0,0 km/h (0 Bft)
11.12.2019 20:06 24,7 C -2,1 C -0,6 C -3,8 C 45 % 83 % 75 % 1009,8 hPa 0,0 l/m 0,0 km/h (0 Bft) NW 315 -4,5 C -0,6 C 0,0 km/h (0 Bft)
11.12.2019 20:04 24,7 C -2,2 C -0,6 C -3,1 C 45 % 83 % 75 % 1009,8 hPa 0,0 l/m 0,0 km/h (0 Bft) W-NW 292 -4,5 C -0,6 C 0,0 km/h (0 Bft)
11.12.2019 20:02 24,7 C -2,3 C -0,6 C -3,1 C 45 % 83 % 75 % 1009,8 hPa 0,0 l/m 0,0 km/h (0 Bft) NW 315 -4,5 C -0,6 C 0,0 km/h (0 Bft)
11.12.2019 20:00 24,7 C -2,2 C -0,6 C -3,2 C 45 % 83 % 75 % 1010,1 hPa 0,0 l/m 0,2 km/h (0 Bft) NW 315 -4,5 C -0,6 C 0,0 km/h (0 Bft)
11.12.2019 19:58 24,7 C -1,9 C -0,6 C -3,1 C 45 % 83 % 75 % 1010,1 hPa 0,0 l/m 0,5 km/h (0 Bft) N-NW 337 -4,5 C -0,6 C 0,0 km/h (0 Bft)
11.12.2019 19:56 24,7 C -2,2 C -0,6 C -2,9 C 45 % 83 % 75 % 1010,1 hPa 0,0 l/m 0,6 km/h (0 Bft) NW 315 -4,5 C -0,6 C 0,0 km/h (0 Bft)
11.12.2019 19:54 24,7 C -2,2 C -0,6 C -3,1 C 45 % 83 % 75 % 1010,1 hPa 0,0 l/m 0,6 km/h (0 Bft) NW 315 -4,5 C -0,6 C 0,0 km/h (0 Bft)
11.12.2019 19:52 24,7 C -2,2 C -0,6 C -2,9 C 45 % 83 % 75 % 1010,1 hPa 0,0 l/m 0,6 km/h (0 Bft) N-NO 22 -4,5 C -0,6 C 3,1 km/h (1 Bft)
11.12.2019 19:50 24,7 C -2,1 C -0,6 C -2,8 C 45 % 83 % 75 % 1010,1 hPa 0,0 l/m 0,6 km/h (0 Bft) N-NW 337 -4,5 C -0,6 C 3,1 km/h (1 Bft)
11.12.2019 19:48 24,7 C -1,8 C -0,6 C -2,7 C 45 % 83 % 75 % 1010,1 hPa 0,0 l/m 0,3 km/h (0 Bft) N 360 -4,5 C -0,6 C 2,7 km/h (1 Bft)
11.12.2019 19:46 24,7 C -1,8 C -0,6 C -2,9 C 45 % 83 % 75 % 1010,1 hPa 0,0 l/m 0,2 km/h (0 Bft) N-NW 337 -4,5 C -0,6 C 2,7 km/h (1 Bft)
11.12.2019 19:44 24,8 C -1,8 C -0,6 C -3,2 C 45 % 83 % 75 % 1010,1 hPa 0,0 l/m 0,0 km/h (0 Bft) NW 315 -4,5 C -0,6 C 0,0 km/h (0 Bft)
11.12.2019 19:42 24,8 C -1,9 C -0,6 C -3,3 C 45 % 83 % 75 % 1010,1 hPa 0,0 l/m 0,0 km/h (0 Bft) NW 315 -4,5 C -0,6 C 0,0 km/h (0 Bft)
11.12.2019 19:40 24,7 C -1,9 C -0,6 C -3,3 C 45 % 83 % 75 % 1010,2 hPa 0,0 l/m 0,0 km/h (0 Bft) NW 315 -4,5 C -0,6 C 0,0 km/h (0 Bft)
11.12.2019 19:38 24,8 C -2,1 C -0,6 C -3,2 C 45 % 83 % 75 % 1010,2 hPa 0,0 l/m 0,0 km/h (0 Bft) NW 315 -4,5 C -0,6 C 0,0 km/h (0 Bft)
11.12.2019 19:36 24,8 C -1,7 C -0,8 C -3,2 C 45 % 83 % 75 % 1010,2 hPa 0,0 l/m 0,0 km/h (0 Bft) NW 315 -4,7 C -0,8 C 0,0 km/h (0 Bft)
11.12.2019 19:34 24,8 C -1,4 C -0,8 C -3,2 C 45 % 83 % 74 % 1010,2 hPa 0,0 l/m 0,0 km/h (0 Bft) NW 315 -4,8 C -0,8 C 0,0 km/h (0 Bft)
11.12.2019 19:32 24,8 C -1,8 C -0,8 C -3,1 C 45 % 83 % 74 % 1010,2 hPa 0,0 l/m 0,0 km/h (0 Bft) NW 315 -4,8 C -0,8 C 0,0 km/h (0 Bft)
11.12.2019 19:30 24,8 C -1,5 C -0,8 C -3,2 C 45 % 83 % 74 % 1010,2 hPa 0,0 l/m 0,0 km/h (0 Bft) NW 315 -4,8 C -0,8 C 0,0 km/h (0 Bft)
11.12.2019 19:28 24,8 C -1,5 C -0,8 C -3,2 C 45 % 83 % 74 % 1010,2 hPa 0,0 l/m 0,0 km/h (0 Bft) NW 315 -4,8 C -0,8 C 0,0 km/h (0 Bft)
11.12.2019 19:26 24,8 C 0,0 C -0,8 C -3,1 C 45 % 82 % 74 % 1010,2 hPa 0,0 l/m 0,0 km/h (0 Bft) NW 315 -4,8 C -0,8 C 0,0 km/h (0 Bft)
11.12.2019 19:24 24,8 C 0,0 C -0,6 C -3,1 C 45 % 82 % 74 % 1010,2 hPa 0,0 l/m 0,0 km/h (0 Bft) NW 315 -4,6 C -0,6 C 0,0 km/h (0 Bft)
11.12.2019 19:22 24,8 C 0,0 C -0,6 C -3,2 C 45 % 82 % 74 % 1010,2 hPa 0,0 l/m 0,0 km/h (0 Bft) NW 315 -4,6 C -0,6 C 0,0 km/h (0 Bft)
11.12.2019 19:20 24,7 C 0,0 C -0,6 C -3,3 C 45 % 82 % 74 % 1010,1 hPa 0,0 l/m 0,0 km/h (0 Bft) S-SO 157 -4,6 C -0,6 C 0,0 km/h (0 Bft)
11.12.2019 19:18 24,7 C 0,0 C -0,5 C -3,3 C 45 % 82 % 74 % 1010,1 hPa 0,0 l/m 0,0 km/h (0 Bft) S-SO 157 -4,5 C -0,5 C 0,0 km/h (0 Bft)
11.12.2019 19:16 24,7 C 0,0 C -0,4 C -3,1 C 45 % 82 % 74 % 1010,1 hPa 0,0 l/m 0,0 km/h (0 Bft) S 180 -4,5 C -0,4 C 0,0 km/h (0 Bft)
11.12.2019 19:14 24,7 C 0,0 C -0,4 C -2,9 C 45 % 82 % 74 % 1010,1 hPa 0,0 l/m 0,0 km/h (0 Bft) W 270 -4,5 C -0,4 C 0,0 km/h (0 Bft)
11.12.2019 19:12 24,7 C 0,0 C -0,4 C -3,1 C 45 % 82 % 74 % 1010,1 hPa 0,0 l/m 0,0 km/h (0 Bft) S 180 -4,5 C -0,4 C 0,0 km/h (0 Bft)
11.12.2019 19:10 24,7 C 0,0 C -0,5 C -3,1 C 45 % 82 % 74 % 1010,1 hPa 0,0 l/m 0,0 km/h (0 Bft) S 180 -4,5 C -0,5 C 0,0 km/h (0 Bft)
11.12.2019 19:08 24,7 C 0,0 C -0,5 C -2,9 C 45 % 82 % 73 % 1010,1 hPa 0,0 l/m 0,0 km/h (0 Bft) S 180 -4,7 C -0,5 C 0,0 km/h (0 Bft)
11.12.2019 19:06 24,7 C 0,0 C -0,5 C -2,9 C 45 % 82 % 73 % 1010,1 hPa 0,0 l/m 0,0 km/h (0 Bft) SW 225 -4,7 C -0,5 C 0,0 km/h (0 Bft)
11.12.2019 19:04 24,7 C 0,0 C -0,4 C -2,9 C 45 % 82 % 73 % 1010,1 hPa 0,0 l/m 0,0 km/h (0 Bft) S-SW 202 -4,6 C -0,4 C 0,0 km/h (0 Bft)
11.12.2019 19:02 24,7 C 0,0 C -0,4 C -2,9 C 45 % 82 % 73 % 1010,1 hPa 0,0 l/m 0,0 km/h (0 Bft) S-SW 202 -4,6 C -0,4 C 0,0 km/h (0 Bft)
11.12.2019 19:00 24,7 C 0,0 C -0,4 C -3,1 C 45 % 82 % 73 % 1010,3 hPa 0,0 l/m 0,2 km/h (0 Bft) S-SW 202 -4,6 C -0,4 C 0,0 km/h (0 Bft)
11.12.2019 18:58 24,7 C 0,0 C -0,2 C -3,1 C 45 % 82 % 73 % 1010,3 hPa 0,0 l/m 0,3 km/h (0 Bft) W 270 -4,4 C -0,2 C 0,0 km/h (0 Bft)
11.12.2019 18:56 24,7 C 0,0 C -0,2 C -3,3 C 45 % 82 % 73 % 1010,3 hPa 0,0 l/m 0,8 km/h (0 Bft) S-SW 202 -4,4 C -0,2 C 0,0 km/h (0 Bft)
11.12.2019 18:54 24,7 C 0,0 C -0,2 C -3,3 C 45 % 82 % 73 % 1010,3 hPa 0,0 l/m 1,0 km/h (0 Bft) S 180 -4,4 C -0,2 C 0,0 km/h (0 Bft)
11.12.2019 18:52 24,7 C 0,0 C -0,2 C -2,9 C 45 % 82 % 73 % 1010,3 hPa 0,0 l/m 1,3 km/h (1 Bft) SW 225 -4,4 C -0,2 C 2,7 km/h (1 Bft)
11.12.2019 18:50 24,7 C 0,0 C -0,2 C -3,1 C 45 % 82 % 73 % 1010,3 hPa 0,0 l/m 1,8 km/h (1 Bft) S 180 -4,4 C -0,2 C 2,7 km/h (1 Bft)
11.12.2019 18:48 24,7 C 0,0 C -0,2 C -2,9 C 45 % 82 % 73 % 1010,3 hPa 0,0 l/m 1,8 km/h (1 Bft) S-SW 202 -4,4 C -0,2 C 2,9 km/h (1 Bft)
11.12.2019 18:46 24,7 C 0,0 C -0,1 C -3,2 C 45 % 82 % 73 % 1010,3 hPa 0,0 l/m 1,8 km/h (1 Bft) SW 225 -4,3 C -0,1 C 3,4 km/h (1 Bft)
11.12.2019 18:44 24,7 C 0,0 C -0,2 C -3,2 C 45 % 82 % 73 % 1010,3 hPa 0,0 l/m 1,6 km/h (1 Bft) S 180 -4,4 C -0,2 C 3,9 km/h (1 Bft)
11.12.2019 18:42 24,7 C 0,0 C -0,2 C -3,1 C 45 % 82 % 73 % 1010,3 hPa 0,0 l/m 1,4 km/h (1 Bft) S 180 -4,4 C -0,2 C 4,1 km/h (1 Bft)
11.12.2019 18:40 24,7 C 0,0 C -0,1 C -2,9 C 45 % 82 % 73 % 1010,3 hPa 0,0 l/m 1,1 km/h (1 Bft) S 180 -4,3 C -0,1 C 4,1 km/h (1 Bft)
11.12.2019 18:38 24,7 C 0,0 C -0,1 C -3,2 C 45 % 82 % 73 % 1010,3 hPa 0,0 l/m 0,8 km/h (0 Bft) S 180 -4,3 C -0,1 C 2,9 km/h (1 Bft)
11.12.2019 18:36 24,7 C 0,0 C -0,2 C -3,6 C 45 % 82 % 73 % 1010,3 hPa 0,0 l/m 0,8 km/h (0 Bft) S 180 -4,4 C -0,2 C 2,9 km/h (1 Bft)
11.12.2019 18:34 24,7 C 0,0 C -0,2 C -3,9 C 45 % 82 % 73 % 1010,3 hPa 0,0 l/m 0,6 km/h (0 Bft) S 180 -4,4 C -0,2 C 0,0 km/h (0 Bft)
11.12.2019 18:32 24,7 C 0,0 C -0,2 C -3,6 C 45 % 82 % 73 % 1010,3 hPa 0,0 l/m 0,0 km/h (0 Bft) O-NO 67 -4,4 C -0,2 C 0,0 km/h (0 Bft)
11.12.2019 18:30 24,7 C 0,0 C -0,2 C -3,3 C 45 % 82 % 73 % 1010,3 hPa 0,0 l/m 0,0 km/h (0 Bft) O-NO 67 -4,4 C -0,2 C 0,0 km/h (0 Bft)
11.12.2019 18:28 24,7 C 0,0 C -0,1 C -3,3 C 45 % 82 % 73 % 1010,3 hPa 0,0 l/m 0,0 km/h (0 Bft) O-NO 67 -4,3 C -0,1 C 0,0 km/h (0 Bft)
11.12.2019 18:26 24,7 C 0,0 C -0,1 C -3,8 C 45 % 82 % 73 % 1010,3 hPa 0,0 l/m 0,0 km/h (0 Bft) O-NO 67 -4,3 C -0,1 C 0,0 km/h (0 Bft)
11.12.2019 18:24 24,7 C 0,0 C 0,0 C -4,0 C 45 % 82 % 73 % 1010,3 hPa 0,0 l/m 0,0 km/h (0 Bft) O-NO 67 -4,2 C 0,0 C 0,0 km/h (0 Bft)
11.12.2019 18:22 24,7 C 0,0 C 0,0 C -4,4 C 45 % 82 % 73 % 1010,3 hPa 0,0 l/m 0,0 km/h (0 Bft) O-NO 67 -4,2 C 0,0 C 0,0 km/h (0 Bft)
11.12.2019 18:20 24,7 C 0,0 C 0,0 C -4,2 C 45 % 82 % 73 % 1010,5 hPa 0,0 l/m 0,0 km/h (0 Bft) O-NO 67 -4,2 C 0,0 C 0,0 km/h (0 Bft)
11.12.2019 18:18 24,7 C 0,0 C 0,0 C -4,0 C 45 % 82 % 73 % 1010,5 hPa 0,0 l/m 0,0 km/h (0 Bft) O-NO 67 -4,2 C 0,0 C 0,0 km/h (0 Bft)
11.12.2019 18:16 24,7 C 0,0 C 0,2 C -3,8 C 45 % 82 % 73 % 1010,5 hPa 0,0 l/m 0,0 km/h (0 Bft) O-NO 67 -4,1 C 0,2 C 0,0 km/h (0 Bft)
11.12.2019 18:14 24,7 C 0,0 C 0,2 C -4,0 C 45 % 82 % 73 % 1010,5 hPa 0,0 l/m 0,0 km/h (0 Bft) O-NO 67 -4,1 C 0,2 C 0,0 km/h (0 Bft)
11.12.2019 18:12 24,7 C 0,0 C 0,2 C -3,9 C 45 % 82 % 73 % 1010,5 hPa 0,0 l/m 0,0 km/h (0 Bft) O-NO 67 -4,1 C 0,2 C 0,0 km/h (0 Bft)
11.12.2019 18:10 24,7 C 0,0 C 0,2 C -3,9 C 45 % 82 % 73 % 1010,5 hPa 0,0 l/m 0,0 km/h (0 Bft) O-NO 67 -4,1 C 0,2 C 0,0 km/h (0 Bft)
11.12.2019 18:08 24,7 C 0,0 C 0,2 C -3,3 C 45 % 82 % 72 % 1010,5 hPa 0,0 l/m 0,0 km/h (0 Bft) O-NO 67 -4,2 C 0,2 C 0,0 km/h (0 Bft)
11.12.2019 18:06 24,7 C 0,0 C 0,3 C -2,9 C 45 % 82 % 72 % 1010,5 hPa 0,0 l/m 0,0 km/h (0 Bft) O-NO 67 -4,1 C 0,3 C 0,0 km/h (0 Bft)
11.12.2019 18:04 24,7 C 0,0 C 0,3 C -2,9 C 45 % 82 % 72 % 1010,5 hPa 0,0 l/m 0,0 km/h (0 Bft) O-NO 67 -4,1 C 0,3 C 0,0 km/h (0 Bft)
11.12.2019 18:02 24,7 C 0,0 C 0,3 C -2,9 C 45 % 82 % 72 % 1010,5 hPa 0,0 l/m 0,0 km/h (0 Bft) O-NO 67 -4,1 C 0,3 C 0,0 km/h (0 Bft)
11.12.2019 18:00 24,7 C 0,0 C 0,1 C -2,8 C 45 % 82 % 72 % 1010,7 hPa 0,0 l/m 0,0 km/h (0 Bft) O-NO 67 -4,3 C 0,1 C 0,0 km/h (0 Bft)
11.12.2019 17:58 24,7 C 0,0 C 0,1 C -2,8 C 45 % 82 % 72 % 1010,7 hPa 0,0 l/m 0,0 km/h (0 Bft) O-NO 67 -4,3 C 0,1 C 0,0 km/h (0 Bft)
11.12.2019 17:56 24,7 C 0,0 C 0,3 C -2,8 C 45 % 82 % 72 % 1010,7 hPa 0,0 l/m 0,0 km/h (0 Bft) O-NO 67 -4,1 C 0,3 C 0,0 km/h (0 Bft)
11.12.2019 17:54 24,7 C 0,0 C 0,3 C -2,7 C 44 % 82 % 72 % 1010,7 hPa 0,0 l/m 0,0 km/h (0 Bft) O-NO 67 -4,1 C 0,3 C 0,0 km/h (0 Bft)
11.12.2019 17:52 24,7 C 0,0 C 0,3 C -2,5 C 45 % 82 % 72 % 1010,7 hPa 0,0 l/m 0,0 km/h (0 Bft) O-NO 67 -4,1 C 0,3 C 0,0 km/h (0 Bft)
11.12.2019 17:50 24,7 C 0,0 C 0,3 C -2,2 C 44 % 82 % 72 % 1010,7 hPa 0,0 l/m 0,0 km/h (0 Bft) O-NO 67 -4,1 C 0,3 C 0,0 km/h (0 Bft)
11.12.2019 17:48 24,7 C 0,0 C 0,3 C -2,2 C 44 % 82 % 72 % 1010,7 hPa 0,0 l/m 0,0 km/h (0 Bft) O-NO 67 -4,1 C 0,3 C 0,0 km/h (0 Bft)
11.12.2019 17:46 24,7 C 0,0 C 0,3 C -2,1 C 44 % 82 % 72 % 1010,7 hPa 0,0 l/m 0,0 km/h (0 Bft) O-NO 67 -4,1 C 0,3 C 0,0 km/h (0 Bft)
11.12.2019 17:44 24,7 C 0,0 C 0,3 C -2,7 C 44 % 82 % 72 % 1010,7 hPa 0,0 l/m 0,0 km/h (0 Bft) O-NO 67 -4,1 C 0,3 C 0,0 km/h (0 Bft)
11.12.2019 17:42 24,7 C 0,0 C 0,3 C -2,4 C 44 % 82 % 72 % 1010,7 hPa 0,0 l/m 0,0 km/h (0 Bft) O-NO 67 -4,1 C 0,3 C 0,0 km/h (0 Bft)
11.12.2019 17:40 24,7 C 0,0 C 0,3 C -2,4 C 44 % 82 % 72 % 1010,9 hPa 0,0 l/m 0,0 km/h (0 Bft) O-NO 67 -4,1 C 0,3 C 0,0 km/h (0 Bft)
11.12.2019 17:38 24,8 C 0,0 C 0,3 C -2,2 C 44 % 82 % 72 % 1010,9 hPa 0,0 l/m 0,0 km/h (0 Bft) O-NO 67 -4,1 C 0,3 C 0,0 km/h (0 Bft)
11.12.2019 17:36 24,7 C 0,0 C 0,3 C -2,1 C 44 % 82 % 72 % 1010,9 hPa 0,0 l/m 0,0 km/h (0 Bft) O-NO 67 -4,1 C 0,3 C 0,0 km/h (0 Bft)
11.12.2019 17:34 24,7 C 0,2 C 0,4 C -2,0 C 44 % 82 % 72 % 1010,9 hPa 0,0 l/m 0,0 km/h (0 Bft) O-NO 67 -4,0 C 0,4 C 0,0 km/h (0 Bft)
11.12.2019 17:32 24,7 C 0,0 C 0,4 C -2,1 C 45 % 82 % 72 % 1010,9 hPa 0,0 l/m 0,0 km/h (0 Bft) O-NO 67 -4,0 C 0,4 C 0,0 km/h (0 Bft)
11.12.2019 17:30 24,7 C 0,0 C 0,4 C -2,1 C 44 % 82 % 72 % 1010,9 hPa 0,0 l/m 0,0 km/h (0 Bft) O-NO 67 -4,0 C 0,4 C 0,0 km/h (0 Bft)
11.12.2019 17:28 24,7 C 0,0 C 0,3 C -2,0 C 45 % 82 % 72 % 1010,9 hPa 0,0 l/m 0,0 km/h (0 Bft) O-NO 67 -4,1 C 0,3 C 0,0 km/h (0 Bft)
11.12.2019 17:26 24,7 C 0,0 C 0,3 C -2,1 C 44 % 82 % 72 % 1010,9 hPa 0,0 l/m 0,0 km/h (0 Bft) O-NO 67 -4,1 C 0,3 C 0,0 km/h (0 Bft)
11.12.2019 17:24 24,7 C 0,2 C 0,3 C -2,1 C 44 % 82 % 72 % 1010,9 hPa 0,0 l/m 0,0 km/h (0 Bft) O-NO 67 -4,1 C 0,3 C 0,0 km/h (0 Bft)
11.12.2019 17:22 24,8 C 0,0 C 0,3 C -2,3 C 44 % 82 % 72 % 1010,9 hPa 0,0 l/m 0,0 km/h (0 Bft) O-NO 67 -4,1 C 0,3 C 0,0 km/h (0 Bft)
11.12.2019 17:20 24,7 C 0,0 C 0,4 C -2,3 C 44 % 82 % 72 % 1010,9 hPa 0,0 l/m 0,0 km/h (0 Bft) O-NO 67 -4,0 C 0,4 C 0,0 km/h (0 Bft)
11.12.2019 17:18 24,8 C 0,0 C 0,4 C -2,1 C 44 % 82 % 72 % 1010,9 hPa 0,0 l/m 0,0 km/h (0 Bft) O-NO 67 -4,0 C 0,4 C 0,0 km/h (0 Bft)
11.12.2019 17:16 24,7 C 0,0 C 0,5 C -2,3 C 44 % 82 % 73 % 1010,9 hPa 0,0 l/m 0,0 km/h (0 Bft) O-NO 67 -3,8 C 0,5 C 0,0 km/h (0 Bft)
11.12.2019 17:14 24,8 C 0,0 C 0,5 C -2,1 C 44 % 82 % 73 % 1010,9 hPa 0,0 l/m 0,0 km/h (0 Bft) O-NO 67 -3,8 C 0,5 C 0,0 km/h (0 Bft)
11.12.2019 17:12 24,7 C -0,1 C 0,5 C -1,9 C 44 % 82 % 73 % 1010,9 hPa 0,0 l/m 0,0 km/h (0 Bft) O-NO 67 -3,8 C 0,5 C 0,0 km/h (0 Bft)
11.12.2019 17:10 24,8 C -0,1 C 0,5 C -2,1 C 44 % 82 % 73 % 1010,9 hPa 0,0 l/m 0,0 km/h (0 Bft) O-NO 67 -3,8 C 0,5 C 0,0 km/h (0 Bft)
11.12.2019 17:08 24,8 C -0,2 C 0,5 C -2,1 C 44 % 82 % 74 % 1010,9 hPa 0,0 l/m 0,0 km/h (0 Bft) O-NO 67 -3,6 C 0,5 C 0,0 km/h (0 Bft)
11.12.2019 17:06 24,8 C -0,1 C 0,5 C -2,3 C 45 % 82 % 74 % 1010,9 hPa 0,0 l/m 0,0 km/h (0 Bft) O-NO 67 -3,6 C 0,5 C 0,0 km/h (0 Bft)
11.12.2019 17:04 24,8 C 0,0 C 0,5 C -2,3 C 45 % 82 % 74 % 1010,9 hPa 0,0 l/m 0,0 km/h (0 Bft) O-NO 67 -3,6 C 0,5 C 0,0 km/h (0 Bft)
11.12.2019 17:02 24,8 C 0,3 C 0,6 C -2,3 C 45 % 83 % 74 % 1010,9 hPa 0,0 l/m 0,0 km/h (0 Bft) O-NO 67 -3,5 C 0,6 C 0,0 km/h (0 Bft)
11.12.2019 17:00 24,8 C 0,4 C 0,6 C -1,7 C 45 % 83 % 75 % 1011,4 hPa 0,0 l/m 0,0 km/h (0 Bft) O-NO 67 -3,3 C 0,6 C 0,0 km/h (0 Bft)
11.12.2019 16:58 24,8 C 0,3 C 0,7 C -1,3 C 45 % 82 % 75 % 1011,4 hPa 0,0 l/m 0,0 km/h (0 Bft) O-NO 67 -3,2 C 0,7 C 0,0 km/h (0 Bft)
11.12.2019 16:56 24,7 C 0,3 C 0,7 C -1,3 C 45 % 82 % 75 % 1011,4 hPa 0,0 l/m 0,0 km/h (0 Bft) O-NO 67 -3,2 C 0,7 C 0,0 km/h (0 Bft)
11.12.2019 16:54 24,8 C 0,2 C 0,7 C -1,3 C 45 % 82 % 75 % 1011,4 hPa 0,0 l/m 0,0 km/h (0 Bft) O-NO 67 -3,2 C 0,7 C 0,0 km/h (0 Bft)
11.12.2019 16:52 24,7 C 0,2 C 0,6 C -1,3 C 45 % 82 % 75 % 1011,4 hPa 0,0 l/m 0,0 km/h (0 Bft) O-NO 67 -3,3 C 0,6 C 0,0 km/h (0 Bft)
11.12.2019 16:50 24,7 C 0,4 C 0,6 C -1,2 C 45 % 81 % 75 % 1011,4 hPa 0,0 l/m 0,0 km/h (0 Bft) O-NO 67 -3,3 C 0,6 C 0,0 km/h (0 Bft)
11.12.2019 16:48 24,7 C 0,4 C 0,5 C -1,7 C 45 % 81 % 75 % 1011,4 hPa 0,0 l/m 0,0 km/h (0 Bft) O-NO 67 -3,4 C 0,5 C 0,0 km/h (0 Bft)
11.12.2019 16:46 24,7 C 0,4 C 0,5 C -2,1 C 45 % 81 % 75 % 1011,4 hPa 0,0 l/m 0,0 km/h (0 Bft) O-NO 67 -3,4 C 0,5 C 0,0 km/h (0 Bft)
11.12.2019 16:44 24,7 C 0,4 C 0,5 C -2,5 C 45 % 81 % 75 % 1011,4 hPa 0,0 l/m 0,0 km/h (0 Bft) O-NO 67 -3,4 C 0,5 C 0,0 km/h (0 Bft)
11.12.2019 16:42 24,7 C 0,4 C 0,5 C -3,1 C 45 % 81 % 75 % 1011,4 hPa 0,0 l/m 0,0 km/h (0 Bft) O-NO 67 -3,4 C 0,5 C 0,0 km/h (0 Bft)
11.12.2019 16:40 24,7 C 0,4 C 0,5 C -2,9 C 45 % 81 % 75 % 1011,4 hPa 0,0 l/m 0,0 km/h (0 Bft) O-NO 67 -3,4 C 0,5 C 0,0 km/h (0 Bft)
11.12.2019 16:38 24,7 C 0,4 C 0,4 C -3,1 C 45 % 81 % 75 % 1011,4 hPa 0,0 l/m 0,0 km/h (0 Bft) O-NO 67 -3,5 C 0,4 C 0,0 km/h (0 Bft)
11.12.2019 16:36 24,7 C 0,4 C 0,3 C -4,1 C 45 % 81 % 75 % 1011,4 hPa 0,0 l/m 0,0 km/h (0 Bft) O-NO 67 -3,6 C 0,3 C 0,0 km/h (0 Bft)
11.12.2019 16:34 24,7 C 0,4 C 0,4 C -3,8 C 45 % 81 % 75 % 1011,4 hPa 0,0 l/m 0,0 km/h (0 Bft) O-NO 67 -3,5 C 0,4 C 0,0 km/h (0 Bft)
11.12.2019 16:32 24,7 C 0,4 C 0,4 C -3,9 C 45 % 81 % 75 % 1011,4 hPa 0,0 l/m 0,0 km/h (0 Bft) O-NO 67 -3,5 C 0,4 C 0,0 km/h (0 Bft)
11.12.2019 16:30 24,7 C 0,4 C 0,3 C -3,9 C 45 % 81 % 75 % 1011,4 hPa 0,0 l/m 0,0 km/h (0 Bft) O-NO 67 -3,6 C 0,3 C 0,0 km/h (0 Bft)
11.12.2019 16:28 24,6 C 0,4 C 0,3 C -3,5 C 45 % 81 % 75 % 1011,4 hPa 0,0 l/m 0,0 km/h (0 Bft) O-NO 67 -3,6 C 0,3 C 0,0 km/h (0 Bft)
11.12.2019 16:26 24,6 C 0,4 C 0,3 C -3,0 C 45 % 81 % 75 % 1011,4 hPa 0,0 l/m 0,0 km/h (0 Bft) O-NO 67 -3,6 C 0,3 C 0,0 km/h (0 Bft)
11.12.2019 16:24 24,6 C 0,4 C 0,3 C -2,8 C 45 % 81 % 75 % 1011,4 hPa 0,0 l/m 0,0 km/h (0 Bft) O-NO 67 -3,6 C 0,3 C 0,0 km/h (0 Bft)
11.12.2019 16:22 24,6 C 0,4 C 0,3 C -3,4 C 45 % 81 % 75 % 1011,4 hPa 0,0 l/m 0,0 km/h (0 Bft) O-NO 67 -3,6 C 0,3 C 0,0 km/h (0 Bft)
11.12.2019 16:20 24,6 C 0,4 C 0,3 C -3,0 C 45 % 81 % 75 % 1011,8 hPa 0,0 l/m 0,0 km/h (0 Bft) O-NO 67 -3,6 C 0,3 C 0,0 km/h (0 Bft)
11.12.2019 16:18 24,6 C 0,4 C 0,4 C -2,5 C 45 % 81 % 75 % 1011,8 hPa 0,0 l/m 0,0 km/h (0 Bft) O-NO 67 -3,5 C 0,4 C 0,0 km/h (0 Bft)
11.12.2019 16:16 24,6 C 0,4 C 0,4 C -3,0 C 45 % 81 % 75 % 1011,8 hPa 0,0 l/m 0,0 km/h (0 Bft) O-NO 67 -3,5 C 0,4 C 0,0 km/h (0 Bft)
11.12.2019 16:14 24,6 C 0,4 C 0,4 C -3,0 C 45 % 81 % 74 % 1011,8 hPa 0,0 l/m 0,0 km/h (0 Bft) O-NO 67 -3,7 C 0,4 C 0,0 km/h (0 Bft)
11.12.2019 16:12 24,6 C 0,4 C 0,4 C -2,8 C 45 % 81 % 74 % 1011,8 hPa 0,0 l/m 0,0 km/h (0 Bft) O-NO 67 -3,7 C 0,4 C 0,0 km/h (0 Bft)
11.12.2019 16:10 24,6 C 0,4 C 0,5 C -3,1 C 45 % 81 % 74 % 1011,8 hPa 0,0 l/m 0,0 km/h (0 Bft) O-NO 67 -3,6 C 0,5 C 0,0 km/h (0 Bft)
11.12.2019 16:08 24,6 C 0,4 C 0,5 C -3,2 C 45 % 81 % 74 % 1011,8 hPa 0,0 l/m 0,0 km/h (0 Bft) O-NO 67 -3,6 C 0,5 C 0,0 km/h (0 Bft)
11.12.2019 16:06 24,6 C 0,5 C 0,5 C -3,1 C 45 % 81 % 74 % 1011,8 hPa 0,0 l/m 0,0 km/h (0 Bft) O-NO 67 -3,6 C 0,5 C 0,0 km/h (0 Bft)
11.12.2019 16:04 24,6 C 0,5 C 0,6 C -2,7 C 45 % 81 % 74 % 1011,8 hPa 0,0 l/m 0,0 km/h (0 Bft) O-NO 67 -3,5 C 0,6 C 0,0 km/h (0 Bft)
11.12.2019 16:02 24,6 C 0,7 C 0,6 C -3,0 C 45 % 80 % 74 % 1011,8 hPa 0,0 l/m 0,0 km/h (0 Bft) O-NO 67 -3,5 C 0,6 C 0,0 km/h (0 Bft)
11.12.2019 16:00 24,6 C 0,8 C 0,6 C -3,4 C 45 % 80 % 74 % 1011,9 hPa 0,0 l/m 0,0 km/h (0 Bft) O-NO 67 -3,5 C 0,6 C 0,0 km/h (0 Bft)
11.12.2019 15:58 24,6 C 1,2 C 0,7 C -3,2 C 45 % 80 % 74 % 1011,9 hPa 0,0 l/m 0,0 km/h (0 Bft) O-NO 67 -3,4 C 0,7 C 0,0 km/h (0 Bft)
11.12.2019 15:56 24,6 C 1,2 C 0,7 C -2,8 C 45 % 80 % 74 % 1011,9 hPa 0,0 l/m 0,0 km/h (0 Bft) O-NO 67 -3,4 C 0,7 C 0,0 km/h (0 Bft)
11.12.2019 15:54 24,6 C 1,2 C 0,7 C -2,7 C 45 % 80 % 74 % 1011,9 hPa 0,0 l/m 0,0 km/h (0 Bft) O-NO 67 -3,4 C 0,7 C 0,0 km/h (0 Bft)
11.12.2019 15:52 24,6 C 1,2 C 0,7 C -2,4 C 45 % 80 % 74 % 1011,9 hPa 0,0 l/m 0,0 km/h (0 Bft) O-NO 67 -3,4 C 0,7 C 0,0 km/h (0 Bft)
11.12.2019 15:50 24,6 C 1,2 C 0,9 C -2,8 C 45 % 80 % 73 % 1011,9 hPa 0,0 l/m 0,0 km/h (0 Bft) O-NO 67 -3,4 C 0,9 C 0,0 km/h (0 Bft)
11.12.2019 15:48 24,6 C 1,2 C 0,9 C -2,4 C 45 % 79 % 73 % 1011,9 hPa 0,0 l/m 0,0 km/h (0 Bft) O-NO 67 -3,4 C 0,9 C 0,0 km/h (0 Bft)
11.12.2019 15:46 24,5 C 3,9 C 1,0 C -2,7 C 45 % 79 % 73 % 1011,9 hPa 0,0 l/m 0,0 km/h (0 Bft) O-NO 67 -3,3 C 1,0 C 0,0 km/h (0 Bft)
11.12.2019 15:44 24,6 C 3,9 C 1,0 C -2,1 C 45 % 79 % 73 % 1011,9 hPa 0,0 l/m 0,0 km/h (0 Bft) O-NO 67 -3,3 C 1,0 C 0,0 km/h (0 Bft)
11.12.2019 15:42 24,5 C 3,9 C 1,1 C -2,5 C 45 % 79 % 73 % 1011,9 hPa 0,0 l/m 0,0 km/h (0 Bft) O-NO 67 -3,2 C 1,1 C 0,0 km/h (0 Bft)
11.12.2019 15:40 24,5 C 3,9 C 1,1 C -2,5 C 45 % 79 % 73 % 1012,1 hPa 0,0 l/m 0,0 km/h (0 Bft) O-NO 67 -3,2 C 1,1 C 0,0 km/h (0 Bft)
11.12.2019 15:38 24,5 C 3,9 C 1,2 C -1,4 C 45 % 79 % 72 % 1012,1 hPa 0,0 l/m 0,0 km/h (0 Bft) O-NO 67 -3,3 C 1,2 C 0,0 km/h (0 Bft)
11.12.2019 15:36 24,5 C 3,9 C 1,2 C -1,6 C 45 % 79 % 72 % 1012,1 hPa 0,0 l/m 0,0 km/h (0 Bft) O-NO 67 -3,3 C 1,2 C 0,0 km/h (0 Bft)
11.12.2019 15:34 24,5 C 3,9 C 1,2 C -1,2 C 45 % 79 % 72 % 1012,1 hPa 0,0 l/m 0,0 km/h (0 Bft) O-NO 67 -3,3 C 1,2 C 0,0 km/h (0 Bft)
11.12.2019 15:32 24,5 C 3,9 C 1,2 C -0,8 C 45 % 79 % 72 % 1012,1 hPa 0,0 l/m 0,0 km/h (0 Bft) O-NO 67 -3,3 C 1,2 C 0,0 km/h (0 Bft)
11.12.2019 15:30 24,5 C 3,9 C 1,4 C -0,9 C 45 % 79 % 72 % 1012,1 hPa 0,0 l/m 0,0 km/h (0 Bft) O-NO 67 -3,1 C 1,4 C 0,0 km/h (0 Bft)
11.12.2019 15:28 24,5 C 3,9 C 1,4 C -0,8 C 45 % 79 % 72 % 1012,1 hPa 0,0 l/m 0,0 km/h (0 Bft) O-NO 67 -3,1 C 1,4 C 0,0 km/h (0 Bft)
11.12.2019 15:26 24,5 C 3,9 C 1,5 C -0,2 C 45 % 79 % 72 % 1012,1 hPa 0,0 l/m 0,0 km/h (0 Bft) O-NO 67 -3,0 C 1,5 C 0,0 km/h (0 Bft)
11.12.2019 15:24 24,5 C 3,9 C 1,5 C -0,1 C 45 % 79 % 71 % 1012,1 hPa 0,0 l/m 0,0 km/h (0 Bft) O-NO 67 -3,2 C 1,5 C 0,0 km/h (0 Bft)
11.12.2019 15:22 24,5 C 3,9 C 1,6 C 0,1 C 45 % 79 % 71 % 1012,1 hPa 0,0 l/m 0,0 km/h (0 Bft) O-NO 67 -3,1 C 1,6 C 0,0 km/h (0 Bft)
11.12.2019 15:20 24,5 C 3,9 C 1,6 C 0,1 C 45 % 79 % 71 % 1012,3 hPa 0,0 l/m 0,0 km/h (0 Bft) O-NO 67 -3,1 C 1,6 C 0,0 km/h (0 Bft)
11.12.2019 15:18 24,5 C 3,9 C 1,6 C 0,2 C 45 % 79 % 71 % 1012,3 hPa 0,0 l/m 0,0 km/h (0 Bft) O-NO 67 -3,1 C 1,6 C 0,0 km/h (0 Bft)
11.12.2019 15:16 24,5 C 3,9 C 1,6 C 0,2 C 45 % 79 % 71 % 1012,3 hPa 0,0 l/m 0,0 km/h (0 Bft) O-NO 67 -3,1 C 1,6 C 0,0 km/h (0 Bft)
11.12.2019 15:14 24,4 C 3,9 C 1,7 C 0,4 C 45 % 79 % 71 % 1012,3 hPa 0,0 l/m 0,0 km/h (0 Bft) O-NO 67 -3,0 C 1,7 C 0,0 km/h (0 Bft)
11.12.2019 15:12 24,4 C 3,9 C 1,7 C 0,4 C 45 % 79 % 71 % 1012,3 hPa 0,0 l/m 0,0 km/h (0 Bft) O-NO 67 -3,0 C 1,7 C 0,0 km/h (0 Bft)
11.12.2019 15:10 24,4 C 3,9 C 1,8 C 0,3 C 45 % 79 % 70 % 1012,3 hPa 0,0 l/m 0,0 km/h (0 Bft) O-NO 67 -3,1 C 1,8 C 0,0 km/h (0 Bft)
11.12.2019 15:08 24,4 C 3,9 C 1,8 C 0,5 C 45 % 79 % 70 % 1012,3 hPa 0,0 l/m 0,0 km/h (0 Bft) O-NO 67 -3,1 C 1,8 C 0,0 km/h (0 Bft)
11.12.2019 15:06 24,4 C 3,9 C 1,8 C 0,4 C 45 % 79 % 70 % 1012,3 hPa 0,0 l/m 0,0 km/h (0 Bft) O-NO 67 -3,1 C 1,8 C 0,0 km/h (0 Bft)
11.12.2019 15:04 24,5 C 3,9 C 1,9 C 0,4 C 45 % 79 % 70 % 1012,3 hPa 0,0 l/m 0,0 km/h (0 Bft) O-NO 67 -3,0 C 1,9 C 0,0 km/h (0 Bft)
11.12.2019 15:02 24,4 C 3,9 C 1,9 C 0,3 C 45 % 79 % 70 % 1012,3 hPa 0,0 l/m 0,0 km/h (0 Bft) O-NO 67 -3,0 C 1,9 C 0,0 km/h (0 Bft)
11.12.2019 15:00 24,4 C 3,9 C 1,9 C 0,3 C 45 % 79 % 69 % 1012,6 hPa 0,0 l/m 0,0 km/h (0 Bft) O-NO 67 -3,2 C 1,9 C 0,0 km/h (0 Bft)
11.12.2019 14:58 24,4 C 3,9 C 1,9 C 0,5 C 45 % 79 % 69 % 1012,6 hPa 0,0 l/m 0,0 km/h (0 Bft) O-NO 67 -3,2 C 1,9 C 0,0 km/h (0 Bft)
11.12.2019 14:56 24,4 C 3,9 C 1,9 C 0,7 C 45 % 79 % 69 % 1012,6 hPa 0,0 l/m 0,0 km/h (0 Bft) O-NO 67 -3,2 C 1,9 C 0,0 km/h (0 Bft)
11.12.2019 14:54 24,4 C 3,9 C 1,9 C 0,8 C 45 % 79 % 69 % 1012,6 hPa 0,0 l/m 0,0 km/h (0 Bft) O-NO 67 -3,2 C 1,9 C 0,0 km/h (0 Bft)
11.12.2019 14:52 24,4 C 3,9 C 2,1 C 0,7 C 45 % 79 % 68 % 1012,6 hPa 0,0 l/m 0,0 km/h (0 Bft) O-NO 67 -3,2 C 2,1 C 0,0 km/h (0 Bft)
11.12.2019 14:50 24,4 C 3,9 C 2,1 C 0,7 C 45 % 79 % 68 % 1012,6 hPa 0,0 l/m 0,0 km/h (0 Bft) O-NO 67 -3,2 C 2,1 C 0,0 km/h (0 Bft)
11.12.2019 14:48 24,4 C 3,9 C 2,1 C 0,8 C 45 % 79 % 68 % 1012,6 hPa 0,0 l/m 0,0 km/h (0 Bft) O-NO 67 -3,2 C 2,1 C 0,0 km/h (0 Bft)
11.12.2019 14:46 24,5 C 3,9 C 2,1 C 0,8 C 45 % 79 % 68 % 1012,6 hPa 0,0 l/m 0,0 km/h (0 Bft) O-NO 67 -3,2 C 2,1 C 0,0 km/h (0 Bft)
11.12.2019 14:44 24,4 C 3,9 C 2,1 C 0,8 C 45 % 79 % 68 % 1012,6 hPa 0,0 l/m 0,0 km/h (0 Bft) O-NO 67 -3,2 C 2,1 C 0,0 km/h (0 Bft)
11.12.2019 14:42 24,4 C 3,9 C 2,1 C 0,7 C 45 % 79 % 68 % 1012,6 hPa 0,0 l/m 0,0 km/h (0 Bft) O-NO 67 -3,2 C 2,1 C 0,0 km/h (0 Bft)
11.12.2019 14:40 24,4 C 3,9 C 2,1 C 0,7 C 45 % 79 % 68 % 1012,8 hPa 0,0 l/m 0,0 km/h (0 Bft) O-NO 67 -3,2 C 2,1 C 0,0 km/h (0 Bft)
11.12.2019 14:38 24,4 C 3,9 C 2,1 C 0,7 C 45 % 79 % 68 % 1012,8 hPa 0,0 l/m 0,0 km/h (0 Bft) O-NO 67 -3,2 C 2,1 C 0,0 km/h (0 Bft)
11.12.2019 14:36 24,4 C 3,9 C 2,1 C 0,7 C 45 % 79 % 68 % 1012,8 hPa 0,0 l/m 0,0 km/h (0 Bft) O-NO 67 -3,2 C 2,1 C 0,0 km/h (0 Bft)
11.12.2019 14:34 24,4 C 3,9 C 2,1 C 0,4 C 45 % 79 % 68 % 1012,8 hPa 0,0 l/m 0,0 km/h (0 Bft) O-NO 67 -3,2 C 2,1 C 0,0 km/h (0 Bft)
11.12.2019 14:32 24,4 C 3,9 C 2,1 C 0,4 C 45 % 79 % 68 % 1012,8 hPa 0,0 l/m 0,0 km/h (0 Bft) O-NO 67 -3,2 C 2,1 C 0,0 km/h (0 Bft)
11.12.2019 14:30 24,4 C 3,9 C 2,1 C 0,4 C 45 % 79 % 68 % 1012,8 hPa 0,0 l/m 0,0 km/h (0 Bft) O-NO 67 -3,2 C 2,1 C 0,0 km/h (0 Bft)
11.12.2019 14:28 24,4 C 3,9 C 2,1 C 0,4 C 45 % 79 % 68 % 1012,8 hPa 0,0 l/m 0,0 km/h (0 Bft) O-NO 67 -3,2 C 2,1 C 0,0 km/h (0 Bft)
11.12.2019 14:26 24,4 C 3,9 C 2,1 C 0,3 C 45 % 79 % 68 % 1012,8 hPa 0,0 l/m 0,0 km/h (0 Bft) O-NO 67 -3,2 C 2,1 C 0,0 km/h (0 Bft)
11.12.2019 14:24 24,4 C 3,9 C 2,1 C 0,3 C 45 % 79 % 68 % 1012,8 hPa 0,0 l/m 0,0 km/h (0 Bft) O-NO 67 -3,2 C 2,1 C 0,0 km/h (0 Bft)
11.12.2019 14:22 24,4 C 3,9 C 2,1 C 0,3 C 44 % 79 % 67 % 1012,8 hPa 0,0 l/m 0,0 km/h (0 Bft) O-NO 67 -3,4 C 2,1 C 0,0 km/h (0 Bft)
11.12.2019 14:20 24,4 C 3,9 C 2,1 C 0,4 C 44 % 79 % 68 % 1013,4 hPa 0,0 l/m 0,0 km/h (0 Bft) O-NO 67 -3,2 C 2,1 C 0,0 km/h (0 Bft)
11.12.2019 14:18 24,4 C 3,9 C 2,1 C 0,9 C 44 % 79 % 68 % 1013,4 hPa 0,0 l/m 0,0 km/h (0 Bft) O-NO 67 -3,2 C 2,1 C 0,0 km/h (0 Bft)
11.12.2019 14:16 24,4 C 3,9 C 2,1 C 1,4 C 44 % 79 % 67 % 1013,4 hPa 0,0 l/m 0,0 km/h (0 Bft) O-NO 67 -3,4 C 2,1 C 0,0 km/h (0 Bft)
11.12.2019 14:14 24,4 C 3,9 C 2,1 C 1,3 C 44 % 79 % 68 % 1013,4 hPa 0,0 l/m 0,0 km/h (0 Bft) O-NO 67 -3,2 C 2,1 C 0,0 km/h (0 Bft)
11.12.2019 14:12 24,4 C 3,9 C 2,1 C 1,1 C 44 % 79 % 68 % 1013,4 hPa 0,0 l/m 0,0 km/h (0 Bft) O-NO 67 -3,2 C 2,1 C 0,0 km/h (0 Bft)
11.12.2019 14:10 24,4 C 3,9 C 2,1 C 1,1 C 44 % 79 % 68 % 1013,4 hPa 0,0 l/m 0,0 km/h (0 Bft) O-NO 67 -3,2 C 2,1 C 0,0 km/h (0 Bft)
11.12.2019 14:08 24,5 C 3,9 C 2,2 C 1,6 C 44 % 79 % 69 % 1013,4 hPa 0,0 l/m 0,0 km/h (0 Bft) O-NO 67 -2,9 C 2,2 C 0,0 km/h (0 Bft)
11.12.2019 14:06 24,4 C 3,9 C 2,2 C 1,8 C 44 % 79 % 70 % 1013,4 hPa 0,0 l/m 0,0 km/h (0 Bft) O-NO 67 -2,7 C 2,2 C 0,0 km/h (0 Bft)
11.12.2019 14:04 24,4 C 3,9 C 2,2 C 2,0 C 44 % 79 % 71 % 1013,4 hPa 0,0 l/m 0,0 km/h (0 Bft) O-NO 67 -2,5 C 2,2 C 0,0 km/h (0 Bft)
11.12.2019 14:02 24,5 C 3,9 C 2,2 C 2,1 C 44 % 79 % 72 % 1013,4 hPa 0,0 l/m 0,0 km/h (0 Bft) O-NO 67 -2,3 C 2,2 C 0,0 km/h (0 Bft)
11.12.2019 14:00 24,4 C 3,9 C 2,1 C 1,9 C 44 % 79 % 73 % 1013,8 hPa 0,0 l/m 0,0 km/h (0 Bft) O-NO 67 -2,2 C 2,1 C 0,0 km/h (0 Bft)
11.12.2019 13:58 24,4 C 3,9 C 2,1 C 2,0 C 44 % 79 % 73 % 1013,8 hPa 0,0 l/m 0,0 km/h (0 Bft) O-NO 67 -2,2 C 2,1 C 0,0 km/h (0 Bft)
11.12.2019 13:56 24,4 C 3,9 C 2,1 C 1,6 C 44 % 79 % 71 % 1013,8 hPa 0,0 l/m 0,0 km/h (0 Bft) O-NO 67 -2,6 C 2,1 C 0,0 km/h (0 Bft)
11.12.2019 13:54 24,4 C 3,9 C 1,9 C 1,4 C 44 % 79 % 71 % 1013,8 hPa 0,0 l/m 0,0 km/h (0 Bft) O-NO 67 -2,8 C 1,9 C 0,0 km/h (0 Bft)
11.12.2019 13:52 24,4 C 3,9 C 2,1 C 1,9 C 44 % 79 % 72 % 1013,8 hPa 0,0 l/m 0,0 km/h (0 Bft) O-NO 67 -2,4 C 2,1 C 0,0 km/h (0 Bft)
11.12.2019 13:50 24,4 C 3,9 C 2,1 C 2,0 C 44 % 79 % 72 % 1013,8 hPa 0,0 l/m 0,0 km/h (0 Bft) O-NO 67 -2,4 C 2,1 C 0,0 km/h (0 Bft)
11.12.2019 13:48 24,4 C 3,9 C 2,2 C 2,1 C 44 % 79 % 72 % 1013,8 hPa 0,0 l/m 0,0 km/h (0 Bft) O-NO 67 -2,3 C 2,2 C 0,0 km/h (0 Bft)
11.12.2019 13:46 24,4 C 3,9 C 2,1 C 2,1 C 44 % 79 % 72 % 1013,8 hPa 0,0 l/m 0,0 km/h (0 Bft) O-NO 67 -2,4 C 2,1 C 0,0 km/h (0 Bft)
11.12.2019 13:44 24,4 C 3,9 C 1,9 C 1,9 C 44 % 79 % 72 % 1013,8 hPa 0,0 l/m 0,0 km/h (0 Bft) O-NO 67 -2,6 C 1,9 C 0,0 km/h (0 Bft)
11.12.2019 13:42 24,4 C 3,9 C 1,9 C 1,8 C 44 % 79 % 71 % 1013,8 hPa 0,0 l/m 0,0 km/h (0 Bft) O-NO 67 -2,8 C 1,9 C 0,0 km/h (0 Bft)
11.12.2019 13:40 24,4 C 3,9 C 2,1 C 1,9 C 44 % 79 % 71 % 1014,1 hPa 0,0 l/m 0,0 km/h (0 Bft) O-NO 67 -2,6 C 2,1 C 0,0 km/h (0 Bft)
11.12.2019 13:38 24,4 C 3,9 C 2,2 C 2,2 C 44 % 79 % 71 % 1014,1 hPa 0,0 l/m 0,0 km/h (0 Bft) O-NO 67 -2,5 C 2,2 C 0,0 km/h (0 Bft)
11.12.2019 13:36 24,4 C 3,9 C 2,3 C 2,5 C 44 % 79 % 72 % 1014,1 hPa 0,0 l/m 0,0 km/h (0 Bft) O-NO 67 -2,2 C 2,3 C 0,0 km/h (0 Bft)
11.12.2019 13:34 24,4 C 4,0 C 2,3 C 3,0 C 44 % 79 % 72 % 1014,1 hPa 0,0 l/m 0,0 km/h (0 Bft) O-NO 67 -2,2 C 2,3 C 0,0 km/h (0 Bft)
11.12.2019 13:32 24,4 C 3,7 C 2,2 C 3,1 C 44 % 79 % 72 % 1014,1 hPa 0,0 l/m 0,0 km/h (0 Bft) O-NO 67 -2,3 C 2,2 C 0,0 km/h (0 Bft)
11.12.2019 13:30 24,5 C 4,1 C 2,1 C 2,7 C 44 % 79 % 71 % 1014,1 hPa 0,0 l/m 0,0 km/h (0 Bft) O-NO 67 -2,6 C 2,1 C 0,0 km/h (0 Bft)
11.12.2019 13:28 24,4 C 4,0 C 2,1 C 2,7 C 44 % 79 % 73 % 1014,1 hPa 0,0 l/m 0,0 km/h (0 Bft) O-NO 67 -2,2 C 2,1 C 0,0 km/h (0 Bft)
11.12.2019 13:26 24,4 C 4,2 C 2,0 C 2,6 C 44 % 79 % 73 % 1014,1 hPa 0,0 l/m 0,0 km/h (0 Bft) O-NO 67 -2,3 C 2,0 C 0,0 km/h (0 Bft)
11.12.2019 13:24 24,4 C 4,0 C 1,7 C 1,9 C 44 % 79 % 71 % 1014,1 hPa 0,0 l/m 0,0 km/h (0 Bft) O-NO 67 -3,0 C 1,7 C 0,0 km/h (0 Bft)
11.12.2019 13:22 24,4 C 3,7 C 1,8 C 1,8 C 44 % 79 % 72 % 1014,1 hPa 0,0 l/m 0,0 km/h (0 Bft) O-NO 67 -2,7 C 1,8 C 0,0 km/h (0 Bft)
11.12.2019 13:20 24,4 C 3,6 C 1,8 C 2,0 C 44 % 79 % 72 % 1014,3 hPa 0,0 l/m 0,0 km/h (0 Bft) O-NO 67 -2,7 C 1,8 C 0,0 km/h (0 Bft)
11.12.2019 13:18 24,4 C 3,6 C 1,8 C 2,1 C 44 % 79 % 71 % 1014,3 hPa 0,0 l/m 0,0 km/h (0 Bft) O-NO 67 -2,9 C 1,8 C 0,0 km/h (0 Bft)
11.12.2019 13:16 24,4 C 3,3 C 1,8 C 2,0 C 44 % 79 % 72 % 1014,3 hPa 0,0 l/m 0,0 km/h (0 Bft) O-NO 67 -2,7 C 1,8 C 0,0 km/h (0 Bft)
11.12.2019 13:14 24,4 C 3,4 C 1,7 C 1,8 C 44 % 79 % 72 % 1014,3 hPa 0,0 l/m 0,0 km/h (0 Bft) O-NO 67 -2,8 C 1,7 C 0,0 km/h (0 Bft)
11.12.2019 13:12 24,4 C 3,4 C 1,8 C 1,9 C 44 % 80 % 72 % 1014,3 hPa 0,0 l/m 0,0 km/h (0 Bft) O-NO 67 -2,7 C 1,8 C 0,0 km/h (0 Bft)
11.12.2019 13:10 24,4 C 3,4 C 1,8 C 2,0 C 44 % 80 % 73 % 1014,3 hPa 0,0 l/m 0,0 km/h (0 Bft) O-NO 67 -2,5 C 1,8 C 0,0 km/h (0 Bft)
11.12.2019 13:08 24,4 C 3,6 C 1,8 C 2,1 C 44 % 80 % 73 % 1014,3 hPa 0,0 l/m 0,0 km/h (0 Bft) O-NO 67 -2,5 C 1,8 C 0,0 km/h (0 Bft)
11.12.2019 13:06 24,4 C 3,6 C 1,7 C 1,8 C 44 % 80 % 73 % 1014,3 hPa 0,0 l/m 0,0 km/h (0 Bft) O-NO 67 -2,6 C 1,7 C 0,0 km/h (0 Bft)
11.12.2019 13:04 24,4 C 2,6 C 1,6 C 1,6 C 44 % 85 % 73 % 1014,3 hPa 0,0 l/m 0,0 km/h (0 Bft) O-NO 67 -2,7 C 1,6 C 0,0 km/h (0 Bft)
11.12.2019 13:02 24,4 C 2,6 C 1,6 C 1,4 C 44 % 85 % 72 % 1014,3 hPa 0,0 l/m 0,0 km/h (0 Bft) O-NO 67 -2,9 C 1,6 C 0,0 km/h (0 Bft)
11.12.2019 13:00 24,4 C 2,6 C 1,7 C 1,6 C 44 % 85 % 73 % 1014,8 hPa 0,0 l/m 0,0 km/h (0 Bft) O-NO 67 -2,6 C 1,7 C 0,0 km/h (0 Bft)
11.12.2019 12:58 24,4 C 2,6 C 1,7 C 1,8 C 44 % 85 % 73 % 1014,8 hPa 0,0 l/m 0,0 km/h (0 Bft) O-NO 67 -2,6 C 1,7 C 0,0 km/h (0 Bft)
11.12.2019 12:56 24,4 C 2,6 C 1,7 C 2,0 C 44 % 85 % 73 % 1014,8 hPa 0,0 l/m 0,0 km/h (0 Bft) O-NO 67 -2,6 C 1,7 C 0,0 km/h (0 Bft)
11.12.2019 12:54 24,4 C 2,6 C 1,8 C 2,1 C 44 % 85 % 75 % 1014,8 hPa 0,0 l/m 0,0 km/h (0 Bft) O-NO 67 -2,1 C 1,8 C 0,0 km/h (0 Bft)
11.12.2019 12:52 24,4 C 2,6 C 1,7 C 2,0 C 44 % 85 % 75 % 1014,8 hPa 0,0 l/m 0,0 km/h (0 Bft) O-NO 67 -2,2 C 1,7 C 0,0 km/h (0 Bft)
11.12.2019 12:50 24,4 C 2,6 C 1,7 C 2,0 C 44 % 85 % 75 % 1014,8 hPa 0,0 l/m 0,0 km/h (0 Bft) O-NO 67 -2,2 C 1,7 C 0,0 km/h (0 Bft)
11.12.2019 12:48 24,4 C 2,6 C 1,8 C 2,2 C 44 % 85 % 76 % 1014,8 hPa 0,0 l/m 0,0 km/h (0 Bft) O-NO 67 -2,0 C 1,8 C 0,0 km/h (0 Bft)
11.12.2019 12:46 24,4 C 2,6 C 1,8 C 1,9 C 44 % 85 % 76 % 1014,8 hPa 0,0 l/m 0,0 km/h (0 Bft) O-NO 67 -2,0 C 1,8 C 0,0 km/h (0 Bft)
11.12.2019 12:44 24,4 C 2,6 C 1,7 C 1,0 C 44 % 85 % 76 % 1014,8 hPa 0,0 l/m 0,0 km/h (0 Bft) O-NO 67 -2,1 C 1,7 C 0,0 km/h (0 Bft)
11.12.2019 12:42 24,4 C 2,6 C 1,6 C 1,5 C 44 % 85 % 76 % 1014,8 hPa 0,0 l/m 0,0 km/h (0 Bft) O-NO 67 -2,2 C 1,6 C 0,0 km/h (0 Bft)
11.12.2019 12:40 24,4 C 2,6 C 1,5 C 1,0 C 44 % 85 % 76 % 1015,2 hPa 0,0 l/m 0,0 km/h (0 Bft) O-NO 67 -2,3 C 1,5 C 0,0 km/h (0 Bft)
11.12.2019 12:38 24,4 C 2,6 C 1,5 C 1,0 C 44 % 85 % 76 % 1015,2 hPa 0,0 l/m 0,0 km/h (0 Bft) O-NO 67 -2,3 C 1,5 C 0,0 km/h (0 Bft)
11.12.2019 12:36 24,4 C 2,6 C 1,5 C 1,4 C 44 % 85 % 75 % 1015,2 hPa 0,0 l/m 0,0 km/h (0 Bft) O-NO 67 -2,4 C 1,5 C 0,0 km/h (0 Bft)
11.12.2019 12:34 24,4 C 2,6 C 1,4 C 1,4 C 44 % 85 % 76 % 1015,2 hPa 0,0 l/m 0,0 km/h (0 Bft) O-NO 67 -2,4 C 1,4 C 0,0 km/h (0 Bft)
11.12.2019 12:32 24,4 C 2,6 C 1,4 C 1,3 C 44 % 85 % 76 % 1015,2 hPa 0,0 l/m 0,0 km/h (0 Bft) O-NO 67 -2,4 C 1,4 C 0,0 km/h (0 Bft)
11.12.2019 12:30 24,4 C 2,6 C 1,4 C 1,2 C 44 % 85 % 75 % 1015,2 hPa 0,0 l/m 0,0 km/h (0 Bft) O-NO 67 -2,5 C 1,4 C 0,0 km/h (0 Bft)
11.12.2019 12:28 24,4 C 2,6 C 1,4 C 1,2 C 44 % 85 % 75 % 1015,2 hPa 0,0 l/m 0,0 km/h (0 Bft) O-NO 67 -2,5 C 1,4 C 0,0 km/h (0 Bft)
11.12.2019 12:26 24,4 C 2,6 C 1,4 C 1,0 C 44 % 85 % 76 % 1015,2 hPa 0,0 l/m 0,0 km/h (0 Bft) O-NO 67 -2,4 C 1,4 C 0,0 km/h (0 Bft)
11.12.2019 12:24 24,4 C 2,6 C 1,5 C 0,9 C 44 % 85 % 76 % 1015,2 hPa 0,0 l/m 0,0 km/h (0 Bft) O-NO 67 -2,3 C 1,5 C 0,0 km/h (0 Bft)
11.12.2019 12:22 24,4 C 2,6 C 1,4 C 0,7 C 44 % 85 % 76 % 1015,2 hPa 0,0 l/m 0,0 km/h (0 Bft) O-NO 67 -2,4 C 1,4 C 0,0 km/h (0 Bft)
11.12.2019 12:20 24,4 C 2,6 C 1,4 C 1,0 C 44 % 85 % 77 % 1015,8 hPa 0,0 l/m 0,0 km/h (0 Bft) O-NO 67 -2,2 C 1,4 C 0,0 km/h (0 Bft)
11.12.2019 12:18 24,4 C 2,6 C 1,5 C 0,8 C 44 % 85 % 78 % 1015,8 hPa 0,0 l/m 0,0 km/h (0 Bft) O-NO 67 -1,9 C 1,5 C 0,0 km/h (0 Bft)
11.12.2019 12:16 24,4 C 2,6 C 1,1 C 0,8 C 44 % 85 % 75 % 1015,8 hPa 0,0 l/m 0,0 km/h (0 Bft) O-NO 67 -2,8 C 1,1 C 0,0 km/h (0 Bft)
11.12.2019 12:14 24,4 C 2,6 C 1,2 C 0,7 C 44 % 85 % 76 % 1015,8 hPa 0,0 l/m 0,0 km/h (0 Bft) O-NO 67 -2,5 C 1,2 C 0,0 km/h (0 Bft)
11.12.2019 12:12 24,4 C 2,6 C 1,4 C 0,7 C 44 % 85 % 77 % 1015,8 hPa 0,0 l/m 0,0 km/h (0 Bft) O-NO 67 -2,2 C 1,4 C 0,0 km/h (0 Bft)
11.12.2019 12:10 24,4 C 2,6 C 1,2 C 0,7 C 44 % 85 % 78 % 1015,8 hPa 0,0 l/m 0,0 km/h (0 Bft) O-NO 67 -2,2 C 1,2 C 0,0 km/h (0 Bft)
11.12.2019 12:08 24,4 C 2,6 C 1,1 C 0,6 C 44 % 85 % 77 % 1015,8 hPa 0,0 l/m 0,0 km/h (0 Bft) O-NO 67 -2,5 C 1,1 C 0,0 km/h (0 Bft)
11.12.2019 12:06 24,4 C 2,6 C 1,1 C 0,6 C 44 % 85 % 76 % 1015,8 hPa 0,0 l/m 0,0 km/h (0 Bft) O-NO 67 -2,6 C 1,1 C 0,0 km/h (0 Bft)
11.12.2019 12:04 24,4 C 2,6 C 1,0 C 0,6 C 44 % 85 % 77 % 1015,8 hPa 0,0 l/m 0,0 km/h (0 Bft) O-NO 67 -2,6 C 1,0 C 0,0 km/h (0 Bft)
11.12.2019 12:02 24,4 C 2,6 C 1,0 C 0,6 C 44 % 85 % 76 % 1015,8 hPa 0,0 l/m 0,0 km/h (0 Bft) O-NO 67 -2,7 C 1,0 C 0,0 km/h (0 Bft)
11.12.2019 12:00 24,4 C 2,7 C 1,0 C 0,6 C 44 % 85 % 77 % 1016,1 hPa 0,0 l/m 0,0 km/h (0 Bft) O-NO 67 -2,6 C 1,0 C 0,0 km/h (0 Bft)
11.12.2019 11:58 24,4 C 2,3 C 1,0 C 0,3 C 44 % 86 % 77 % 1016,1 hPa 0,1 l/m 0,0 km/h (0 Bft) O-NO 67 -2,6 C 1,0 C 0,0 km/h (0 Bft)
11.12.2019 11:56 24,4 C 2,3 C 1,0 C 0,4 C 44 % 86 % 77 % 1016,1 hPa 0,0 l/m 0,0 km/h (0 Bft) O-NO 67 -2,6 C 1,0 C 0,0 km/h (0 Bft)
11.12.2019 11:54 24,4 C 2,3 C 1,0 C 0,3 C 44 % 86 % 78 % 1016,1 hPa 0,0 l/m 0,0 km/h (0 Bft) O-NO 67 -2,4 C 1,0 C 0,0 km/h (0 Bft)
11.12.2019 11:52 24,4 C 2,2 C 1,0 C 0,3 C 44 % 86 % 79 % 1016,1 hPa 0,0 l/m 0,0 km/h (0 Bft) O-NO 67 -2,2 C 1,0 C 0,0 km/h (0 Bft)
11.12.2019 11:50 24,4 C 2,1 C 1,0 C -0,1 C 44 % 86 % 79 % 1016,1 hPa 0,0 l/m 0,0 km/h (0 Bft) O-NO 67 -2,2 C 1,0 C 0,0 km/h (0 Bft)
11.12.2019 11:48 24,4 C 1,9 C 1,0 C -0,1 C 44 % 87 % 79 % 1016,1 hPa 0,0 l/m 0,0 km/h (0 Bft) O-NO 67 -2,2 C 1,0 C 0,0 km/h (0 Bft)
11.12.2019 11:46 24,4 C 1,9 C 0,9 C -0,3 C 44 % 87 % 79 % 1016,1 hPa 0,0 l/m 0,0 km/h (0 Bft) O-NO 67 -2,3 C 0,9 C 0,0 km/h (0 Bft)
11.12.2019 11:44 24,4 C 1,8 C 0,9 C -0,3 C 44 % 87 % 80 % 1016,1 hPa 0,0 l/m 0,0 km/h (0 Bft) O-NO 67 -2,2 C 0,9 C 0,0 km/h (0 Bft)
11.12.2019 11:42 24,4 C 1,9 C 0,9 C -0,2 C 44 % 87 % 81 % 1016,1 hPa 0,0 l/m 0,0 km/h (0 Bft) O-NO 67 -2,0 C 0,9 C 0,0 km/h (0 Bft)
11.12.2019 11:40 24,4 C 1,9 C 0,7 C -0,3 C 44 % 87 % 82 % 1016,6 hPa 0,0 l/m 0,0 km/h (0 Bft) O-NO 67 -2,0 C 0,7 C 0,0 km/h (0 Bft)
11.12.2019 11:38 24,4 C 1,8 C 0,7 C -0,3 C 44 % 87 % 82 % 1016,6 hPa 0,0 l/m 0,0 km/h (0 Bft) O-NO 67 -2,0 C 0,7 C 0,0 km/h (0 Bft)
11.12.2019 11:36 24,4 C 1,9 C 0,6 C -0,3 C 44 % 87 % 82 % 1016,6 hPa 0,0 l/m 0,0 km/h (0 Bft) O-NO 67 -2,1 C 0,6 C 0,0 km/h (0 Bft)
11.12.2019 11:34 24,2 C -0,6 C 0,5 C -0,3 C 44 % 89 % 82 % 1016,6 hPa 0,0 l/m 0,0 km/h (0 Bft) O-NO 67 -2,2 C 0,5 C 0,0 km/h (0 Bft)
11.12.2019 11:32 24,2 C -0,6 C 0,5 C -0,3 C 44 % 89 % 83 % 1016,6 hPa 0,0 l/m 0,0 km/h (0 Bft) O-NO 67 -2,0 C 0,5 C 0,0 km/h (0 Bft)
11.12.2019 11:30 24,2 C -0,6 C 0,5 C -0,3 C 44 % 89 % 83 % 1016,6 hPa 0,0 l/m 0,0 km/h (0 Bft) O-NO 67 -2,0 C 0,5 C 0,0 km/h (0 Bft)
11.12.2019 11:28 24,2 C -0,6 C 0,4 C -0,2 C 44 % 89 % 84 % 1016,6 hPa 0,0 l/m 0,0 km/h (0 Bft) O-NO 67 -2,0 C 0,4 C 0,0 km/h (0 Bft)
11.12.2019 11:26 24,3 C -0,6 C 0,4 C -0,2 C 44 % 89 % 84 % 1016,6 hPa 0,0 l/m 0,0 km/h (0 Bft) O-NO 67 -2,0 C 0,4 C 0,0 km/h (0 Bft)
11.12.2019 11:24 24,2 C -0,6 C 0,4 C -0,5 C 44 % 89 % 85 % 1016,6 hPa 0,0 l/m 0,0 km/h (0 Bft) O-NO 67 -1,8 C 0,4 C 0,0 km/h (0 Bft)
11.12.2019 11:22 24,3 C -0,6 C 0,5 C -0,5 C 44 % 89 % 86 % 1016,6 hPa 0,0 l/m 0,0 km/h (0 Bft) O-NO 67 -1,6 C 0,5 C 0,0 km/h (0 Bft)
11.12.2019 11:20 24,3 C -0,6 C 0,3 C -0,6 C 44 % 89 % 86 % 1016,8 hPa 0,0 l/m 0,0 km/h (0 Bft) O-NO 67 -1,8 C 0,3 C 0,0 km/h (0 Bft)
11.12.2019 11:18 24,3 C -0,6 C 0,3 C -0,6 C 44 % 89 % 86 % 1016,8 hPa 0,0 l/m 0,0 km/h (0 Bft) O-NO 67 -1,8 C 0,3 C 0,0 km/h (0 Bft)
11.12.2019 11:16 24,3 C -0,6 C 0,3 C -0,5 C 44 % 89 % 86 % 1016,8 hPa 0,0 l/m 0,0 km/h (0 Bft) O-NO 67 -1,8 C 0,3 C 0,0 km/h (0 Bft)
11.12.2019 11:14 24,3 C -0,6 C 0,3 C -0,5 C 44 % 89 % 86 % 1016,8 hPa 0,0 l/m 0,0 km/h (0 Bft) O-NO 67 -1,8 C 0,3 C 0,0 km/h (0 Bft)
11.12.2019 11:12 24,3 C -0,6 C 0,2 C -0,6 C 44 % 89 % 86 % 1016,8 hPa 0,0 l/m 0,0 km/h (0 Bft) O-NO 67 -1,9 C 0,2 C 0,0 km/h (0 Bft)
11.12.2019 11:10 24,2 C -0,6 C 0,2 C -0,5 C 44 % 89 % 87 % 1016,8 hPa 0,0 l/m 0,0 km/h (0 Bft) O-NO 67 -1,7 C 0,2 C 0,0 km/h (0 Bft)
11.12.2019 11:08 24,3 C -0,6 C 0,0 C -0,6 C 44 % 89 % 87 % 1016,8 hPa 0,0 l/m 0,0 km/h (0 Bft) O-NO 67 -1,9 C 0,0 C 0,0 km/h (0 Bft)
11.12.2019 11:06 24,2 C -0,6 C 0,2 C -0,7 C 44 % 89 % 87 % 1016,8 hPa 0,0 l/m 0,0 km/h (0 Bft) O-NO 67 -1,7 C 0,2 C 0,0 km/h (0 Bft)
11.12.2019 11:04 24,3 C -0,6 C 0,2 C -0,6 C 44 % 89 % 87 % 1016,8 hPa 0,0 l/m 0,0 km/h (0 Bft) O-NO 67 -1,7 C 0,2 C 0,0 km/h (0 Bft)
11.12.2019 11:02 24,2 C -0,6 C 0,2 C -0,5 C 44 % 89 % 87 % 1016,8 hPa 0,0 l/m 0,0 km/h (0 Bft) O-NO 67 -1,7 C 0,2 C 0,0 km/h (0 Bft)
11.12.2019 11:00 24,2 C -0,6 C -0,1 C -0,7 C 44 % 89 % 87 % 1017,7 hPa 0,0 l/m 0,0 km/h (0 Bft) O-NO 67 -2,0 C -0,1 C 0,0 km/h (0 Bft)
11.12.2019 10:58 24,2 C -0,6 C 0,0 C -0,6 C 44 % 89 % 87 % 1017,7 hPa 0,0 l/m 0,0 km/h (0 Bft) O-NO 67 -1,9 C 0,0 C 0,0 km/h (0 Bft)
11.12.2019 10:56 24,2 C -0,6 C -0,1 C -0,6 C 44 % 89 % 87 % 1017,7 hPa 0,0 l/m 0,0 km/h (0 Bft) O-NO 67 -2,0 C -0,1 C 0,0 km/h (0 Bft)
11.12.2019 10:54 24,2 C -0,6 C -0,1 C -0,7 C 44 % 89 % 87 % 1017,7 hPa 0,0 l/m 0,0 km/h (0 Bft) O-NO 67 -2,0 C -0,1 C 0,0 km/h (0 Bft)
11.12.2019 10:52 24,2 C -0,6 C -0,1 C -0,7 C 44 % 89 % 88 % 1017,7 hPa 0,0 l/m 0,0 km/h (0 Bft) O-NO 67 -1,8 C -0,1 C 0,0 km/h (0 Bft)
11.12.2019 10:50 24,2 C -0,6 C 0,0 C -0,6 C 44 % 89 % 88 % 1017,7 hPa 0,0 l/m 0,0 km/h (0 Bft) O-NO 67 -1,7 C 0,0 C 0,0 km/h (0 Bft)
11.12.2019 10:48 24,2 C -0,6 C -0,1 C -0,7 C 44 % 89 % 88 % 1017,7 hPa 0,0 l/m 0,0 km/h (0 Bft) O-NO 67 -1,8 C -0,1 C 0,0 km/h (0 Bft)
11.12.2019 10:46 24,2 C -0,6 C -0,1 C -0,6 C 45 % 89 % 88 % 1017,7 hPa 0,0 l/m 0,0 km/h (0 Bft) O-NO 67 -1,8 C -0,1 C 0,0 km/h (0 Bft)
11.12.2019 10:44 24,2 C -0,6 C -0,1 C -0,7 C 45 % 89 % 89 % 1017,7 hPa 0,0 l/m 0,0 km/h (0 Bft) O-NO 67 -1,7 C -0,1 C 0,0 km/h (0 Bft)
11.12.2019 10:42 24,2 C -0,6 C -0,2 C -0,7 C 45 % 89 % 89 % 1017,7 hPa 0,0 l/m 0,0 km/h (0 Bft) O-NO 67 -1,8 C -0,2 C 0,0 km/h (0 Bft)
11.12.2019 10:40 24,2 C -0,6 C -0,2 C -0,6 C 45 % 89 % 89 % 1018,1 hPa 0,0 l/m 0,0 km/h (0 Bft) O-NO 67 -1,8 C -0,2 C 0,0 km/h (0 Bft)
11.12.2019 10:38 24,2 C -0,6 C -0,4 C -0,7 C 45 % 89 % 89 % 1018,1 hPa 0,0 l/m 0,0 km/h (0 Bft) O-NO 67 -2,0 C -0,4 C 0,0 km/h (0 Bft)
11.12.2019 10:36 24,2 C -0,6 C -0,5 C -0,9 C 45 % 89 % 89 % 1018,1 hPa 0,0 l/m 0,0 km/h (0 Bft) O-NO 67 -2,1 C -0,5 C 0,0 km/h (0 Bft)
11.12.2019 10:34 24,2 C -0,6 C -0,5 C -0,9 C 45 % 89 % 89 % 1018,1 hPa 0,0 l/m 0,0 km/h (0 Bft) O-NO 67 -2,1 C -0,5 C 0,0 km/h (0 Bft)
11.12.2019 10:32 24,2 C -0,6 C -0,6 C -1,0 C 45 % 89 % 89 % 1018,1 hPa 0,0 l/m 0,0 km/h (0 Bft) O-NO 67 -2,2 C -0,6 C 0,0 km/h (0 Bft)
11.12.2019 10:30 24,2 C -0,6 C -0,6 C -1,0 C 45 % 89 % 89 % 1018,1 hPa 0,0 l/m 0,0 km/h (0 Bft) O-NO 67 -2,2 C -0,6 C 0,0 km/h (0 Bft)
11.12.2019 10:28 24,2 C -0,6 C -0,6 C -1,0 C 45 % 89 % 90 % 1018,1 hPa 0,0 l/m 0,0 km/h (0 Bft) O-NO 67 -2,0 C -0,6 C 0,0 km/h (0 Bft)
11.12.2019 10:26 24,2 C -0,6 C -0,6 C -1,0 C 45 % 89 % 89 % 1018,1 hPa 0,0 l/m 0,0 km/h (0 Bft) O-NO 67 -2,2 C -0,6 C 0,0 km/h (0 Bft)
11.12.2019 10:24 24,2 C -0,6 C -0,6 C -1,1 C 45 % 89 % 90 % 1018,1 hPa 0,0 l/m 0,0 km/h (0 Bft) O-NO 67 -2,0 C -0,6 C 0,0 km/h (0 Bft)
11.12.2019 10:22 24,2 C -0,6 C -0,8 C -1,1 C 45 % 89 % 90 % 1018,1 hPa 0,0 l/m 0,0 km/h (0 Bft) O-NO 67 -2,2 C -0,8 C 0,0 km/h (0 Bft)
11.12.2019 10:20 24,2 C -0,6 C -0,8 C -1,1 C 45 % 89 % 90 % 1018,3 hPa 0,0 l/m 0,0 km/h (0 Bft) O-NO 67 -2,2 C -0,8 C 0,0 km/h (0 Bft)
11.12.2019 10:18 24,2 C -0,6 C -0,8 C -1,0 C 45 % 89 % 90 % 1018,3 hPa 0,0 l/m 0,0 km/h (0 Bft) O-NO 67 -2,2 C -0,8 C 0,0 km/h (0 Bft)
11.12.2019 10:16 24,2 C -0,6 C -0,9 C -1,3 C 45 % 89 % 90 % 1018,3 hPa 0,0 l/m 0,0 km/h (0 Bft) O-NO 67 -2,3 C -0,9 C 0,0 km/h (0 Bft)
11.12.2019 10:14 24,2 C -0,6 C -0,9 C -1,3 C 45 % 89 % 90 % 1018,3 hPa 0,0 l/m 0,0 km/h (0 Bft) O-NO 67 -2,3 C -0,9 C 0,0 km/h (0 Bft)
11.12.2019 10:12 24,2 C -0,6 C -0,8 C -1,1 C 45 % 89 % 90 % 1018,3 hPa 0,0 l/m 0,0 km/h (0 Bft) O-NO 67 -2,2 C -0,8 C 0,0 km/h (0 Bft)
11.12.2019 10:10 24,2 C -0,6 C -0,9 C -1,3 C 45 % 89 % 90 % 1018,3 hPa 0,0 l/m 0,0 km/h (0 Bft) O-NO 67 -2,3 C -0,9 C 0,0 km/h (0 Bft)
11.12.2019 10:08 24,2 C -0,6 C -1,0 C -1,4 C 45 % 89 % 90 % 1018,3 hPa 0,0 l/m 0,0 km/h (0 Bft) O-NO 67 -2,4 C -1,0 C 0,0 km/h (0 Bft)
11.12.2019 10:06 24,2 C -0,6 C -1,0 C -1,4 C 45 % 89 % 90 % 1018,3 hPa 0,0 l/m 0,0 km/h (0 Bft) O-NO 67 -2,4 C -1,0 C 0,0 km/h (0 Bft)
11.12.2019 10:04 24,2 C -0,6 C -1,0 C -1,5 C 45 % 89 % 90 % 1018,3 hPa 0,0 l/m 0,0 km/h (0 Bft) O-NO 67 -2,4 C -1,0 C 0,0 km/h (0 Bft)
11.12.2019 10:02 24,2 C -0,6 C -1,0 C -1,3 C 45 % 89 % 90 % 1018,3 hPa 0,0 l/m 0,2 km/h (0 Bft) O-NO 67 -2,4 C -1,0 C 0,0 km/h (0 Bft)
11.12.2019 10:00 24,1 C -0,6 C -1,0 C -1,1 C 45 % 89 % 90 % 1018,6 hPa 0,0 l/m 0,2 km/h (0 Bft) O-NO 67 -2,4 C -1,0 C 0,0 km/h (0 Bft)
11.12.2019 09:58 24,1 C -0,6 C -1,1 C -1,4 C 45 % 89 % 90 % 1018,6 hPa 0,0 l/m 0,2 km/h (0 Bft) O-NO 67 -2,5 C -1,1 C 0,0 km/h (0 Bft)
11.12.2019 09:56 24,2 C -0,6 C -1,0 C -1,3 C 45 % 89 % 90 % 1018,6 hPa 0,0 l/m 0,2 km/h (0 Bft) O-NO 67 -2,4 C -1,0 C 0,0 km/h (0 Bft)
11.12.2019 09:54 24,1 C -0,6 C -1,1 C -1,5 C 45 % 89 % 90 % 1018,6 hPa 0,0 l/m 0,2 km/h (0 Bft) O-NO 67 -2,5 C -1,1 C 0,0 km/h (0 Bft)
11.12.2019 09:52 24,1 C -0,6 C -1,3 C -1,5 C 45 % 89 % 90 % 1018,6 hPa 0,0 l/m 0,2 km/h (0 Bft) O-NO 67 -2,7 C -1,3 C 0,0 km/h (0 Bft)
11.12.2019 09:50 24,1 C -0,6 C -1,3 C -1,7 C 45 % 89 % 90 % 1018,6 hPa 0,0 l/m 0,2 km/h (0 Bft) O-NO 67 -2,7 C -1,3 C 0,0 km/h (0 Bft)
11.12.2019 09:48 24,1 C -0,6 C -1,4 C -1,7 C 45 % 89 % 90 % 1018,6 hPa 0,0 l/m 0,2 km/h (0 Bft) O-NO 67 -2,8 C -1,4 C 0,0 km/h (0 Bft)
11.12.2019 09:46 24,1 C -0,8 C -1,4 C -1,7 C 45 % 89 % 90 % 1018,6 hPa 0,0 l/m 0,2 km/h (0 Bft) O-NO 67 -2,8 C -1,4 C 2,9 km/h (1 Bft)
11.12.2019 09:44 24,1 C -0,5 C -1,6 C -1,7 C 45 % 89 % 90 % 1018,6 hPa 0,0 l/m 0,2 km/h (0 Bft) SO 135 -3,0 C -1,6 C 2,9 km/h (1 Bft)
11.12.2019 09:42 24,2 C -0,9 C -1,6 C -1,8 C 45 % 89 % 90 % 1018,6 hPa 0,0 l/m 0,2 km/h (0 Bft) O-SO 112 -3,0 C -1,6 C 0,0 km/h (0 Bft)
11.12.2019 09:40 24,1 C -1,0 C -1,6 C -1,8 C 45 % 89 % 90 % 1018,7 hPa 0,0 l/m 0,3 km/h (0 Bft) NO 45 -3,0 C -1,6 C 0,0 km/h (0 Bft)
11.12.2019 09:38 24,1 C -1,0 C -1,6 C -1,8 C 45 % 89 % 90 % 1018,7 hPa 0,0 l/m 0,5 km/h (0 Bft) S-SO 157 -3,0 C -1,6 C 0,0 km/h (0 Bft)
11.12.2019 09:36 24,1 C -1,3 C -1,6 C -1,9 C 45 % 89 % 90 % 1018,7 hPa 0,0 l/m 0,3 km/h (0 Bft) S 180 -3,0 C -1,6 C 0,0 km/h (0 Bft)
11.12.2019 09:34 24,1 C -1,3 C -1,7 C -2,2 C 45 % 89 % 90 % 1018,7 hPa 0,0 l/m 0,3 km/h (0 Bft) NO 45 -3,1 C -1,7 C 3,6 km/h (1 Bft)
11.12.2019 09:32 24,2 C -1,2 C -1,7 C -1,9 C 45 % 89 % 90 % 1018,7 hPa 0,0 l/m 0,5 km/h (0 Bft) S 180 -3,1 C -1,7 C 3,6 km/h (1 Bft)
11.12.2019 09:30 24,1 C -1,3 C -1,7 C -1,9 C 45 % 89 % 90 % 1018,7 hPa 0,0 l/m 0,3 km/h (0 Bft) O 90 -3,1 C -1,7 C 0,0 km/h (0 Bft)
11.12.2019 09:28 24,1 C -1,3 C -1,7 C -2,1 C 45 % 89 % 90 % 1018,7 hPa 0,0 l/m 0,2 km/h (0 Bft) SO 135 -3,1 C -1,7 C 0,0 km/h (0 Bft)
11.12.2019 09:26 24,1 C -1,6 C -1,8 C -2,1 C 45 % 89 % 90 % 1018,7 hPa 0,0 l/m 0,2 km/h (0 Bft) O-NO 67 -3,2 C -1,8 C 0,0 km/h (0 Bft)
11.12.2019 09:24 24,1 C -1,4 C -1,8 C -2,1 C 45 % 89 % 90 % 1018,7 hPa 0,0 l/m 0,2 km/h (0 Bft) N-NW 337 -3,2 C -1,8 C 4,1 km/h (1 Bft)
11.12.2019 09:22 24,1 C -1,4 C -1,8 C -2,1 C 45 % 89 % 90 % 1018,7 hPa 0,0 l/m 0,2 km/h (0 Bft) S-SO 157 -3,2 C -1,8 C 4,1 km/h (1 Bft)
11.12.2019 09:20 24,1 C -1,7 C -2,0 C -2,1 C 45 % 89 % 90 % 1018,8 hPa 0,0 l/m 0,2 km/h (0 Bft) NO 45 -3,4 C -2,0 C 0,0 km/h (0 Bft)
11.12.2019 09:18 24,1 C -1,7 C -2,0 C -2,2 C 45 % 89 % 90 % 1018,8 hPa 0,0 l/m 0,2 km/h (0 Bft) S-SO 157 -3,4 C -2,0 C 0,0 km/h (0 Bft)
11.12.2019 09:16 24,1 C -1,7 C -2,0 C -2,1 C 45 % 89 % 89 % 1018,8 hPa 0,0 l/m 0,2 km/h (0 Bft) O-NO 67 -3,6 C -2,0 C 2,9 km/h (1 Bft)
11.12.2019 09:14 24,1 C -1,7 C -2,0 C -2,1 C 45 % 89 % 89 % 1018,8 hPa 0,0 l/m 0,2 km/h (0 Bft) O-SO 112 -3,6 C -2,0 C 2,9 km/h (1 Bft)
11.12.2019 09:12 24,1 C -1,7 C -2,0 C -2,1 C 45 % 89 % 89 % 1018,8 hPa 0,0 l/m 0,2 km/h (0 Bft) O-SO 112 -3,6 C -2,0 C 0,0 km/h (0 Bft)
11.12.2019 09:10 24,1 C -1,3 C -2,0 C -2,1 C 45 % 89 % 89 % 1018,8 hPa 0,0 l/m 0,3 km/h (0 Bft) O-SO 112 -3,6 C -2,0 C 0,0 km/h (0 Bft)
11.12.2019 09:08 24,1 C -1,3 C -2,0 C -2,1 C 45 % 89 % 89 % 1018,8 hPa 0,0 l/m 0,5 km/h (0 Bft) W-SW 247 -3,6 C -2,0 C 0,0 km/h (0 Bft)
11.12.2019 09:06 24,1 C -1,3 C -2,0 C -2,2 C 45 % 89 % 89 % 1018,8 hPa 0,0 l/m 0,5 km/h (0 Bft) O-SO 112 -3,6 C -2,0 C 2,4 km/h (1 Bft)
11.12.2019 09:04 24,1 C -1,3 C -2,0 C -2,1 C 45 % 89 % 89 % 1018,8 hPa 0,0 l/m 0,5 km/h (0 Bft) N-NW 337 -3,6 C -2,0 C 2,4 km/h (1 Bft)
11.12.2019 09:02 24,1 C -1,3 C -2,0 C -2,2 C 45 % 89 % 89 % 1018,8 hPa 0,0 l/m 0,8 km/h (0 Bft) N-NO 22 -3,6 C -2,0 C 0,0 km/h (0 Bft)
11.12.2019 09:00 24,1 C -1,3 C -2,0 C -2,1 C 45 % 89 % 89 % 1018,9 hPa 0,0 l/m 0,8 km/h (0 Bft) N-NW 337 -3,6 C -2,0 C 3,4 km/h (1 Bft)
11.12.2019 08:58 24,1 C -1,3 C -2,0 C -2,2 C 45 % 89 % 89 % 1018,9 hPa 0,0 l/m 1,0 km/h (0 Bft) O 90 -3,6 C -2,0 C 3,4 km/h (1 Bft)
11.12.2019 08:56 24,1 C -1,3 C -2,0 C -2,2 C 45 % 89 % 89 % 1018,9 hPa 0,0 l/m 1,0 km/h (0 Bft) SO 135 -3,6 C -2,0 C 3,4 km/h (1 Bft)
11.12.2019 08:54 24,1 C -1,3 C -2,0 C -2,2 C 45 % 89 % 89 % 1018,9 hPa 0,0 l/m 1,0 km/h (0 Bft) S-SO 157 -3,6 C -2,0 C 3,9 km/h (1 Bft)
11.12.2019 08:52 24,1 C -1,3 C -2,1 C -2,4 C 45 % 89 % 89 % 1018,9 hPa 0,0 l/m 1,0 km/h (0 Bft) SO 135 -3,7 C -2,1 C 3,9 km/h (1 Bft)
11.12.2019 08:50 24,1 C -1,3 C -2,1 C -2,4 C 45 % 89 % 89 % 1018,9 hPa 0,0 l/m 0,8 km/h (0 Bft) SO 135 -3,7 C -2,1 C 5,1 km/h (1 Bft)
11.12.2019 08:48 24,1 C -1,3 C -2,2 C -2,4 C 45 % 89 % 89 % 1018,9 hPa 0,0 l/m 0,5 km/h (0 Bft) O-NO 67 -3,8 C -2,2 C 5,1 km/h (1 Bft)
11.12.2019 08:46 24,1 C -1,3 C -2,2 C -2,5 C 45 % 89 % 89 % 1018,9 hPa 0,0 l/m 0,2 km/h (0 Bft) O-SO 112 -3,8 C -2,2 C 0,0 km/h (0 Bft)
11.12.2019 08:44 24,1 C -1,3 C -2,4 C -2,2 C 45 % 89 % 89 % 1018,9 hPa 0,0 l/m 0,2 km/h (0 Bft) NO 45 -4,0 C -2,4 C 0,0 km/h (0 Bft)
11.12.2019 08:42 24,1 C -1,3 C -2,4 C -1,9 C 45 % 89 % 89 % 1018,9 hPa 0,0 l/m 0,0 km/h (0 Bft) O-NO 67 -4,0 C -2,4 C 0,0 km/h (0 Bft)
11.12.2019 08:40 24,1 C -1,3 C -2,4 C -1,9 C 46 % 89 % 89 % 1019,2 hPa 0,0 l/m 0,0 km/h (0 Bft) O-NO 67 -4,0 C -2,4 C 0,0 km/h (0 Bft)
11.12.2019 08:38 24,2 C -1,3 C -2,4 C -1,9 C 46 % 89 % 89 % 1019,2 hPa 0,0 l/m 0,0 km/h (0 Bft) N-NW 337 -4,0 C -2,4 C 0,0 km/h (0 Bft)
11.12.2019 08:36 24,2 C -1,3 C -2,4 C -2,5 C 46 % 89 % 88 % 1019,2 hPa 0,0 l/m 0,0 km/h (0 Bft) O-SO 112 -4,1 C -2,4 C 0,0 km/h (0 Bft)
11.12.2019 08:34 24,1 C -1,3 C -2,4 C -3,0 C 46 % 89 % 88 % 1019,2 hPa 0,0 l/m 0,0 km/h (0 Bft) O-SO 112 -4,1 C -2,4 C 0,0 km/h (0 Bft)
11.12.2019 08:32 24,2 C -1,1 C -2,4 C -2,8 C 46 % 89 % 88 % 1019,2 hPa 0,0 l/m 0,2 km/h (0 Bft) O-NO 67 -4,1 C -2,4 C 0,0 km/h (0 Bft)
11.12.2019 08:30 24,2 C -1,3 C -2,4 C -3,0 C 46 % 89 % 88 % 1019,2 hPa 0,0 l/m 0,2 km/h (0 Bft) SO 135 -4,1 C -2,4 C 0,0 km/h (0 Bft)
11.12.2019 08:28 24,1 C -1,3 C -2,5 C -3,0 C 46 % 89 % 88 % 1019,2 hPa 0,0 l/m 0,2 km/h (0 Bft) O-NO 67 -4,2 C -2,5 C 0,0 km/h (0 Bft)
11.12.2019 08:26 24,2 C -1,5 C -2,5 C -2,9 C 46 % 89 % 88 % 1019,2 hPa 0,0 l/m 0,2 km/h (0 Bft) O-SO 112 -4,2 C -2,5 C 0,0 km/h (0 Bft)
11.12.2019 08:24 24,2 C -1,7 C -2,5 C -3,3 C 46 % 89 % 88 % 1019,2 hPa 0,0 l/m 0,2 km/h (0 Bft) O-SO 112 -4,2 C -2,5 C 3,9 km/h (1 Bft)
11.12.2019 08:22 24,2 C -1,7 C -2,5 C -3,6 C 46 % 89 % 88 % 1019,2 hPa 0,0 l/m 0,2 km/h (0 Bft) SO 135 -4,2 C -2,5 C 3,9 km/h (1 Bft)
11.12.2019 08:20 24,2 C -1,8 C -2,5 C -4,4 C 46 % 89 % 88 % 1019,2 hPa 0,0 l/m 0,0 km/h (0 Bft) W-SW 247 -4,2 C -2,5 C 0,0 km/h (0 Bft)
11.12.2019 08:18 24,1 C -1,8 C -2,5 C -4,3 C 46 % 89 % 88 % 1019,2 hPa 0,0 l/m 0,0 km/h (0 Bft) W-SW 247 -4,2 C -2,5 C 0,0 km/h (0 Bft)
11.12.2019 08:16 24,1 C -1,7 C -2,5 C -4,1 C 46 % 89 % 88 % 1019,2 hPa 0,0 l/m 0,0 km/h (0 Bft) W-SW 247 -4,2 C -2,5 C 0,0 km/h (0 Bft)
11.12.2019 08:14 24,1 C -1,4 C -2,5 C -4,0 C 46 % 89 % 88 % 1019,2 hPa 0,0 l/m 0,0 km/h (0 Bft) W-SW 247 -4,2 C -2,5 C 0,0 km/h (0 Bft)
11.12.2019 08:12 24,1 C -1,3 C -2,5 C -3,9 C 46 % 89 % 88 % 1019,2 hPa 0,0 l/m 0,0 km/h (0 Bft) SO 135 -4,2 C -2,5 C 0,0 km/h (0 Bft)
11.12.2019 08:10 24,1 C -1,3 C -2,5 C -3,5 C 46 % 89 % 88 % 1019,2 hPa 0,0 l/m 0,0 km/h (0 Bft) SO 135 -4,2 C -2,5 C 0,0 km/h (0 Bft)
11.12.2019 08:08 24,1 C -1,4 C -2,5 C -3,0 C 46 % 89 % 88 % 1019,2 hPa 0,0 l/m 0,0 km/h (0 Bft) W-SW 247 -4,2 C -2,5 C 0,0 km/h (0 Bft)
11.12.2019 08:06 24,1 C -1,5 C -2,5 C -2,8 C 46 % 89 % 88 % 1019,2 hPa 0,0 l/m 0,3 km/h (0 Bft) W-SW 247 -4,2 C -2,5 C 0,0 km/h (0 Bft)
11.12.2019 08:04 24,1 C -1,6 C -2,5 C -2,6 C 46 % 89 % 88 % 1019,2 hPa 0,0 l/m 0,6 km/h (0 Bft) SW 225 -4,2 C -2,5 C 0,0 km/h (0 Bft)
11.12.2019 08:02 24,1 C -1,5 C -2,5 C -2,2 C 46 % 89 % 88 % 1019,2 hPa 0,0 l/m 0,6 km/h (0 Bft) W-NW 292 -4,2 C -2,5 C 0,0 km/h (0 Bft)
11.12.2019 08:00 24,1 C -1,4 C -2,6 C -2,1 C 46 % 89 % 88 % 1019,2 hPa 0,0 l/m 0,6 km/h (0 Bft) SW 225 -4,3 C -2,6 C 0,0 km/h (0 Bft)
11.12.2019 07:58 24,0 C -1,4 C -2,6 C -2,1 C 46 % 89 % 88 % 1019,2 hPa 0,0 l/m 0,6 km/h (0 Bft) S 180 -4,3 C -2,6 C 3,1 km/h (1 Bft)
11.12.2019 07:56 24,1 C -1,4 C -2,6 C -2,1 C 46 % 89 % 88 % 1019,2 hPa 0,0 l/m 0,5 km/h (0 Bft) S 180 -4,3 C -2,6 C 3,4 km/h (1 Bft)
11.12.2019 07:54 24,0 C -1,4 C -2,6 C -2,1 C 46 % 89 % 88 % 1019,2 hPa 0,0 l/m 0,0 km/h (0 Bft) S-SO 157 -4,3 C -2,6 C 3,4 km/h (1 Bft)
11.12.2019 07:52 24,0 C -1,7 C -2,6 C -2,1 C 46 % 89 % 88 % 1019,2 hPa 0,0 l/m 0,0 km/h (0 Bft) SW 225 -4,3 C -2,6 C 0,0 km/h (0 Bft)
11.12.2019 07:50 24,0 C -1,7 C -2,6 C -2,1 C 46 % 89 % 88 % 1019,2 hPa 0,0 l/m 0,0 km/h (0 Bft) SW 225 -4,3 C -2,6 C 0,0 km/h (0 Bft)
11.12.2019 07:48 24,0 C -1,7 C -2,6 C -2,1 C 46 % 89 % 88 % 1019,2 hPa 0,0 l/m 0,3 km/h (0 Bft) S 180 -4,3 C -2,6 C 0,0 km/h (0 Bft)
11.12.2019 07:46 24,0 C -1,7 C -2,6 C -2,1 C 46 % 89 % 88 % 1019,2 hPa 0,0 l/m 0,3 km/h (0 Bft) S-SO 157 -4,3 C -2,6 C 0,0 km/h (0 Bft)
11.12.2019 07:44 24,0 C -1,3 C -2,6 C -2,2 C 46 % 89 % 88 % 1019,2 hPa 0,0 l/m 0,3 km/h (0 Bft) SO 135 -4,3 C -2,6 C 0,0 km/h (0 Bft)
11.12.2019 07:42 24,0 C -0,6 C -2,6 C -2,2 C 46 % 89 % 88 % 1019,2 hPa 0,0 l/m 0,3 km/h (0 Bft) O-SO 112 -4,3 C -2,6 C 0,0 km/h (0 Bft)
11.12.2019 07:40 24,0 C -0,6 C -2,6 C -2,5 C 46 % 89 % 88 % 1019,3 hPa 0,0 l/m 0,3 km/h (0 Bft) O-NO 67 -4,3 C -2,6 C 4,1 km/h (1 Bft)
11.12.2019 07:38 24,0 C -0,6 C -2,6 C -2,6 C 46 % 89 % 88 % 1019,3 hPa 0,0 l/m 0,2 km/h (0 Bft) O-SO 112 -4,3 C -2,6 C 4,1 km/h (1 Bft)
11.12.2019 07:36 23,9 C -0,6 C -2,6 C -3,0 C 46 % 89 % 88 % 1019,3 hPa 0,0 l/m 0,0 km/h (0 Bft) SO 135 -4,3 C -2,6 C 0,0 km/h (0 Bft)
11.12.2019 07:34 24,0 C -0,6 C -2,6 C -3,2 C 46 % 89 % 88 % 1019,3 hPa 0,0 l/m 0,0 km/h (0 Bft) S-SO 157 -4,3 C -2,6 C 0,0 km/h (0 Bft)
11.12.2019 07:32 24,0 C -0,6 C -2,6 C -3,3 C 46 % 89 % 88 % 1019,3 hPa 0,0 l/m 0,0 km/h (0 Bft) S-SO 157 -4,3 C -2,6 C 0,0 km/h (0 Bft)
11.12.2019 07:30 23,9 C -0,6 C -2,6 C -3,7 C 46 % 89 % 88 % 1019,3 hPa 0,0 l/m 0,0 km/h (0 Bft) S-SO 157 -4,3 C -2,6 C 0,0 km/h (0 Bft)
11.12.2019 07:28 24,0 C -0,6 C -2,6 C -3,7 C 46 % 89 % 88 % 1019,3 hPa 0,0 l/m 0,0 km/h (0 Bft) S 180 -4,3 C -2,6 C 0,0 km/h (0 Bft)
11.12.2019 07:26 24,0 C -0,6 C -2,6 C -4,1 C 46 % 89 % 88 % 1019,3 hPa 0,0 l/m 0,0 km/h (0 Bft) S 180 -4,3 C -2,6 C 0,0 km/h (0 Bft)
11.12.2019 07:24 24,0 C -0,6 C -2,6 C -4,4 C 46 % 89 % 88 % 1019,3 hPa 0,0 l/m 0,0 km/h (0 Bft) S 180 -4,3 C -2,6 C 0,0 km/h (0 Bft)
11.12.2019 07:22 24,0 C -0,6 C -2,6 C -4,1 C 46 % 89 % 88 % 1019,3 hPa 0,0 l/m 0,0 km/h (0 Bft) SO 135 -4,3 C -2,6 C 0,0 km/h (0 Bft)
11.12.2019 07:20 24,0 C -0,6 C -2,6 C -3,9 C 46 % 89 % 88 % 1019,8 hPa 0,0 l/m 0,0 km/h (0 Bft) SO 135 -4,3 C -2,6 C 0,0 km/h (0 Bft)
11.12.2019 07:18 24,0 C -0,6 C -2,5 C -3,6 C 46 % 89 % 88 % 1019,8 hPa 0,0 l/m 0,0 km/h (0 Bft) SO 135 -4,2 C -2,5 C 0,0 km/h (0 Bft)
11.12.2019 07:16 24,0 C -0,6 C -2,4 C -3,5 C 46 % 89 % 88 % 1019,8 hPa 0,0 l/m 0,0 km/h (0 Bft) SO 135 -4,1 C -2,4 C 0,0 km/h (0 Bft)
11.12.2019 07:14 24,0 C -0,6 C -2,4 C -3,7 C 46 % 89 % 88 % 1019,8 hPa 0,0 l/m 0,0 km/h (0 Bft) O 90 -4,1 C -2,4 C 0,0 km/h (0 Bft)
11.12.2019 07:12 24,0 C -0,6 C -2,2 C -3,7 C 46 % 89 % 88 % 1019,8 hPa 0,0 l/m 0,0 km/h (0 Bft) S-SW 202 -3,9 C -2,2 C 0,0 km/h (0 Bft)
11.12.2019 07:10 24,0 C -0,6 C -2,2 C -3,6 C 46 % 89 % 88 % 1019,8 hPa 0,0 l/m 0,0 km/h (0 Bft) O-NO 67 -3,9 C -2,2 C 0,0 km/h (0 Bft)
11.12.2019 07:08 24,0 C -0,6 C -2,2 C -2,8 C 46 % 89 % 88 % 1019,8 hPa 0,0 l/m 0,0 km/h (0 Bft) SO 135 -3,9 C -2,2 C 0,0 km/h (0 Bft)
11.12.2019 07:06 24,0 C -0,6 C -2,2 C -3,2 C 46 % 89 % 88 % 1019,8 hPa 0,0 l/m 0,0 km/h (0 Bft) W-SW 247 -3,9 C -2,2 C 0,0 km/h (0 Bft)
11.12.2019 07:04 24,0 C -0,6 C -2,2 C -3,3 C 46 % 89 % 88 % 1019,8 hPa 0,0 l/m 0,0 km/h (0 Bft) NW 315 -3,9 C -2,2 C 0,0 km/h (0 Bft)
11.12.2019 07:02 24,0 C -0,6 C -2,2 C -3,2 C 46 % 89 % 88 % 1019,8 hPa 0,0 l/m 0,0 km/h (0 Bft) N-NW 337 -3,9 C -2,2 C 0,0 km/h (0 Bft)
11.12.2019 07:00 24,0 C -0,6 C -2,1 C -2,5 C 46 % 89 % 88 % 1020,1 hPa 0,0 l/m 0,0 km/h (0 Bft) O-SO 112 -3,8 C -2,1 C 0,0 km/h (0 Bft)
11.12.2019 06:58 24,0 C -0,6 C -2,1 C -2,4 C 46 % 89 % 88 % 1020,1 hPa 0,0 l/m 0,0 km/h (0 Bft) W-NW 292 -3,8 C -2,1 C 0,0 km/h (0 Bft)
11.12.2019 06:56 24,0 C -0,6 C -2,1 C -2,1 C 46 % 89 % 88 % 1020,1 hPa 0,0 l/m 0,0 km/h (0 Bft) O-SO 112 -3,8 C -2,1 C 0,0 km/h (0 Bft)
11.12.2019 06:54 24,0 C -0,6 C -2,1 C -2,2 C 46 % 89 % 88 % 1020,1 hPa 0,0 l/m 0,2 km/h (0 Bft) N 360 -3,8 C -2,1 C 0,0 km/h (0 Bft)
11.12.2019 06:52 24,0 C -0,6 C -2,1 C -2,4 C 46 % 89 % 88 % 1020,1 hPa 0,0 l/m 0,5 km/h (0 Bft) O-NO 67 -3,8 C -2,1 C 0,0 km/h (0 Bft)
11.12.2019 06:50 24,0 C -0,6 C -2,1 C -2,1 C 46 % 89 % 88 % 1020,1 hPa 0,0 l/m 1,0 km/h (0 Bft) O-SO 112 -3,8 C -2,1 C 0,0 km/h (0 Bft)
11.12.2019 06:48 24,0 C -0,6 C -2,1 C -2,1 C 46 % 89 % 88 % 1020,1 hPa 0,0 l/m 1,0 km/h (0 Bft) O-SO 112 -3,8 C -2,1 C 0,0 km/h (0 Bft)
11.12.2019 06:46 24,0 C -0,6 C -2,1 C -2,1 C 46 % 89 % 88 % 1020,1 hPa 0,0 l/m 1,1 km/h (1 Bft) O-NO 67 -3,8 C -2,1 C 2,7 km/h (1 Bft)
11.12.2019 06:44 24,0 C -0,6 C -2,1 C -2,2 C 46 % 89 % 88 % 1020,1 hPa 0,0 l/m 1,4 km/h (1 Bft) S-SO 157 -3,8 C -2,1 C 3,1 km/h (1 Bft)
11.12.2019 06:42 24,0 C -0,6 C -2,1 C -2,2 C 46 % 89 % 88 % 1020,1 hPa 0,0 l/m 1,0 km/h (0 Bft) SO 135 -3,8 C -2,1 C 5,3 km/h (1 Bft)
11.12.2019 06:40 24,0 C -0,6 C -2,1 C -2,2 C 46 % 89 % 88 % 1020,2 hPa 0,0 l/m 0,8 km/h (0 Bft) SO 135 -3,8 C -2,1 C 5,3 km/h (1 Bft)
11.12.2019 06:38 24,0 C -0,6 C -2,1 C -2,5 C 46 % 89 % 88 % 1020,2 hPa 0,0 l/m 0,5 km/h (0 Bft) SO 135 -3,8 C -2,1 C 4,1 km/h (1 Bft)
11.12.2019 06:36 24,0 C -0,6 C -2,1 C -2,4 C 46 % 89 % 88 % 1020,2 hPa 0,0 l/m 0,3 km/h (0 Bft) SO 135 -3,8 C -2,1 C 4,1 km/h (1 Bft)
11.12.2019 06:34 24,0 C -0,6 C -2,1 C -2,5 C 46 % 89 % 88 % 1020,2 hPa 0,0 l/m 0,2 km/h (0 Bft) SO 135 -3,8 C -2,1 C 2,7 km/h (1 Bft)
11.12.2019 06:32 24,0 C -0,6 C -2,1 C -2,5 C 46 % 89 % 88 % 1020,2 hPa 0,0 l/m 0,0 km/h (0 Bft) S-SO 157 -3,8 C -2,1 C 0,0 km/h (0 Bft)
11.12.2019 06:30 24,0 C -0,6 C -2,1 C -2,5 C 46 % 89 % 88 % 1020,2 hPa 0,0 l/m 0,0 km/h (0 Bft) SO 135 -3,8 C -2,1 C 0,0 km/h (0 Bft)
11.12.2019 06:28 24,0 C -0,6 C -2,1 C -2,5 C 46 % 89 % 88 % 1020,2 hPa 0,0 l/m 0,0 km/h (0 Bft) SO 135 -3,8 C -2,1 C 0,0 km/h (0 Bft)
11.12.2019 06:26 24,0 C -0,6 C -2,1 C -2,5 C 46 % 89 % 88 % 1020,2 hPa 0,0 l/m 0,2 km/h (0 Bft) S 180 -3,8 C -2,1 C 0,0 km/h (0 Bft)
11.12.2019 06:24 24,0 C -0,6 C -2,1 C -2,5 C 46 % 89 % 88 % 1020,2 hPa 0,0 l/m 0,2 km/h (0 Bft) O-NO 67 -3,8 C -2,1 C 2,7 km/h (1 Bft)
11.12.2019 06:22 24,0 C -0,6 C -2,1 C -2,4 C 46 % 89 % 88 % 1020,2 hPa 0,0 l/m 0,3 km/h (0 Bft) O-NO 67 -3,8 C -2,1 C 2,7 km/h (1 Bft)
11.12.2019 06:20 24,0 C -0,6 C -2,0 C -2,2 C 46 % 89 % 88 % 1020,4 hPa 0,0 l/m 0,3 km/h (0 Bft) SO 135 -3,7 C -2,0 C 0,0 km/h (0 Bft)
11.12.2019 06:18 24,0 C -0,6 C -2,0 C -2,1 C 46 % 89 % 88 % 1020,4 hPa 0,0 l/m 0,3 km/h (0 Bft) O-NO 67 -3,7 C -2,0 C 3,6 km/h (1 Bft)
11.12.2019 06:16 24,0 C -0,6 C -2,0 C -1,8 C 46 % 89 % 88 % 1020,4 hPa 0,0 l/m 0,5 km/h (0 Bft) N-NO 22 -3,7 C -2,0 C 3,6 km/h (1 Bft)
11.12.2019 06:14 24,0 C -0,6 C -2,0 C -1,9 C 46 % 89 % 88 % 1020,4 hPa 0,0 l/m 0,3 km/h (0 Bft) O-SO 112 -3,7 C -2,0 C 0,0 km/h (0 Bft)
11.12.2019 06:12 24,0 C -0,6 C -2,0 C -1,7 C 46 % 89 % 88 % 1020,4 hPa 0,0 l/m 0,5 km/h (0 Bft) O-NO 67 -3,7 C -2,0 C 2,4 km/h (1 Bft)
11.12.2019 06:10 24,0 C -0,6 C -1,8 C -1,7 C 46 % 89 % 88 % 1020,4 hPa 0,0 l/m 0,3 km/h (0 Bft) O 90 -3,5 C -1,8 C 2,4 km/h (1 Bft)
11.12.2019 06:08 24,0 C -0,6 C -1,8 C -1,7 C 46 % 89 % 88 % 1020,4 hPa 0,0 l/m 0,3 km/h (0 Bft) O 90 -3,5 C -1,8 C 2,4 km/h (1 Bft)
11.12.2019 06:06 24,0 C -0,6 C -1,8 C -1,7 C 46 % 89 % 88 % 1020,4 hPa 0,0 l/m 0,3 km/h (0 Bft) SO 135 -3,5 C -1,8 C 3,1 km/h (1 Bft)
11.12.2019 06:04 24,0 C -0,6 C -1,8 C -1,5 C 46 % 89 % 88 % 1020,4 hPa 0,0 l/m 0,3 km/h (0 Bft) O-NO 67 -3,5 C -1,8 C 3,1 km/h (1 Bft)
11.12.2019 06:02 24,1 C -0,5 C -1,8 C -1,4 C 46 % 89 % 88 % 1020,4 hPa 0,0 l/m 0,3 km/h (0 Bft) NO 45 -3,5 C -1,8 C 2,7 km/h (1 Bft)
11.12.2019 06:00 24,1 C -0,4 C -1,8 C -1,4 C 46 % 89 % 88 % 1020,5 hPa 0,0 l/m 0,3 km/h (0 Bft) O-NO 67 -3,5 C -1,8 C 0,0 km/h (0 Bft)
11.12.2019 05:58 24,1 C -0,5 C -1,8 C -1,4 C 46 % 89 % 88 % 1020,5 hPa 0,0 l/m 0,3 km/h (0 Bft) O-SO 112 -3,5 C -1,8 C 3,4 km/h (1 Bft)
11.12.2019 05:56 24,1 C -0,5 C -1,8 C -1,4 C 46 % 89 % 88 % 1020,5 hPa 0,0 l/m 0,2 km/h (0 Bft) O-NO 67 -3,5 C -1,8 C 3,4 km/h (1 Bft)
11.12.2019 05:54 24,0 C -0,6 C -1,8 C -1,4 C 46 % 89 % 88 % 1020,5 hPa 0,0 l/m 0,3 km/h (0 Bft) O-SO 112 -3,5 C -1,8 C 0,0 km/h (0 Bft)
11.12.2019 05:52 24,0 C -0,6 C -1,8 C -1,4 C 46 % 89 % 88 % 1020,5 hPa 0,0 l/m 0,6 km/h (0 Bft) SO 135 -3,5 C -1,8 C 0,0 km/h (0 Bft)
11.12.2019 05:50 24,1 C -0,8 C -1,8 C -1,4 C 46 % 89 % 88 % 1020,5 hPa 0,0 l/m 0,6 km/h (0 Bft) O-NO 67 -3,5 C -1,8 C 0,0 km/h (0 Bft)
11.12.2019 05:48 24,1 C -0,8 C -1,8 C -1,4 C 46 % 89 % 88 % 1020,5 hPa 0,0 l/m 0,6 km/h (0 Bft) SW 225 -3,5 C -1,8 C 2,7 km/h (1 Bft)
11.12.2019 05:46 24,1 C -0,6 C -1,7 C -1,3 C 46 % 89 % 88 % 1020,5 hPa 0,0 l/m 0,8 km/h (0 Bft) NO 45 -3,4 C -1,7 C 3,1 km/h (1 Bft)
11.12.2019 05:44 24,1 C -0,6 C -1,7 C -1,3 C 46 % 89 % 88 % 1020,5 hPa 0,0 l/m 0,6 km/h (0 Bft) O-NO 67 -3,4 C -1,7 C 3,1 km/h (1 Bft)
11.12.2019 05:42 24,1 C -0,5 C -1,7 C -1,3 C 46 % 89 % 88 % 1020,5 hPa 0,0 l/m 0,5 km/h (0 Bft) N-NO 22 -3,4 C -1,7 C 3,1 km/h (1 Bft)
11.12.2019 05:40 24,1 C -0,6 C -1,7 C -1,1 C 46 % 89 % 88 % 1020,7 hPa 0,0 l/m 0,2 km/h (0 Bft) NW 315 -3,4 C -1,7 C 0,0 km/h (0 Bft)
11.12.2019 05:38 24,1 C -0,5 C -1,7 C -1,0 C 46 % 89 % 88 % 1020,7 hPa 0,0 l/m 0,2 km/h (0 Bft) SO 135 -3,4 C -1,7 C 0,0 km/h (0 Bft)
11.12.2019 05:36 24,1 C -0,8 C -1,8 C -1,0 C 46 % 89 % 88 % 1020,7 hPa 0,0 l/m 0,2 km/h (0 Bft) O-SO 112 -3,5 C -1,8 C 0,0 km/h (0 Bft)
11.12.2019 05:34 24,1 C -0,8 C -1,8 C -1,0 C 46 % 89 % 88 % 1020,7 hPa 0,0 l/m 0,2 km/h (0 Bft) O 90 -3,5 C -1,8 C 0,0 km/h (0 Bft)
11.12.2019 05:32 24,1 C -0,9 C -1,8 C -1,1 C 46 % 89 % 88 % 1020,7 hPa 0,0 l/m 0,3 km/h (0 Bft) SO 135 -3,5 C -1,8 C 2,4 km/h (1 Bft)
11.12.2019 05:30 24,1 C -1,0 C -1,8 C -1,1 C 46 % 89 % 88 % 1020,7 hPa 0,0 l/m 0,5 km/h (0 Bft) O-NO 67 -3,5 C -1,8 C 2,4 km/h (1 Bft)
11.12.2019 05:28 24,1 C -0,9 C -1,8 C -1,1 C 46 % 89 % 88 % 1020,7 hPa 0,0 l/m 0,5 km/h (0 Bft) W 270 -3,5 C -1,8 C 0,0 km/h (0 Bft)
11.12.2019 05:26 24,1 C -0,6 C -1,8 C -1,3 C 46 % 89 % 88 % 1020,7 hPa 0,0 l/m 0,5 km/h (0 Bft) O-NO 67 -3,5 C -1,8 C 0,0 km/h (0 Bft)
11.12.2019 05:24 24,1 C -0,6 C -1,8 C -1,3 C 46 % 89 % 88 % 1020,7 hPa 0,0 l/m 0,6 km/h (0 Bft) N-NO 22 -3,5 C -1,8 C 5,1 km/h (1 Bft)
11.12.2019 05:22 24,1 C -0,8 C -1,8 C -1,1 C 46 % 89 % 88 % 1020,7 hPa 0,0 l/m 1,0 km/h (0 Bft) O-NO 67 -3,5 C -1,8 C 5,1 km/h (1 Bft)
11.12.2019 05:20 24,1 C -0,9 C -1,8 C -1,1 C 46 % 89 % 88 % 1021,0 hPa 0,0 l/m 1,1 km/h (1 Bft) O-NO 67 -3,5 C -1,8 C 3,9 km/h (1 Bft)
11.12.2019 05:18 24,1 C -0,8 C -1,8 C -1,0 C 46 % 89 % 88 % 1021,0 hPa 0,0 l/m 1,0 km/h (0 Bft) O 90 -3,5 C -1,8 C 2,4 km/h (1 Bft)
11.12.2019 05:16 24,2 C -1,0 C -1,8 C -1,0 C 46 % 89 % 88 % 1021,0 hPa 0,0 l/m 1,0 km/h (0 Bft) S-SO 157 -3,5 C -1,8 C 2,9 km/h (1 Bft)
11.12.2019 05:14 24,1 C -0,9 C -1,8 C -1,0 C 46 % 89 % 88 % 1021,0 hPa 0,0 l/m 1,1 km/h (1 Bft) NO 45 -3,5 C -1,8 C 3,4 km/h (1 Bft)
11.12.2019 05:12 24,1 C -0,9 C -1,8 C -1,0 C 46 % 89 % 88 % 1021,0 hPa 0,0 l/m 1,0 km/h (0 Bft) N-NW 337 -3,5 C -1,8 C 5,3 km/h (1 Bft)
11.12.2019 05:10 24,1 C -0,9 C -1,8 C -1,0 C 46 % 89 % 88 % 1021,0 hPa 0,0 l/m 0,8 km/h (0 Bft) O-NO 67 -3,5 C -1,8 C 5,3 km/h (1 Bft)
11.12.2019 05:08 24,2 C -0,9 C -1,8 C -1,0 C 46 % 89 % 88 % 1021,0 hPa 0,0 l/m 0,5 km/h (0 Bft) O-NO 67 -3,5 C -1,8 C 3,4 km/h (1 Bft)
11.12.2019 05:06 24,1 C -0,9 C -1,8 C -1,0 C 46 % 89 % 88 % 1021,0 hPa 0,0 l/m 0,6 km/h (0 Bft) S 180 -3,5 C -1,8 C 3,4 km/h (1 Bft)
11.12.2019 05:04 24,2 C -0,9 C -1,8 C -1,0 C 46 % 89 % 88 % 1021,0 hPa 0,0 l/m 1,0 km/h (0 Bft) O-SO 112 -3,5 C -1,8 C 2,7 km/h (1 Bft)
11.12.2019 05:02 24,2 C -0,9 C -1,8 C -1,1 C 46 % 89 % 88 % 1021,0 hPa 0,0 l/m 0,8 km/h (0 Bft) O-SO 112 -3,5 C -1,8 C 2,4 km/h (1 Bft)
11.12.2019 05:00 24,2 C -0,9 C -1,8 C -1,1 C 46 % 89 % 88 % 1021,4 hPa 0,0 l/m 0,8 km/h (0 Bft) O 90 -3,5 C -1,8 C 0,0 km/h (0 Bft)
11.12.2019 04:58 24,2 C -0,9 C -1,8 C -1,1 C 46 % 89 % 88 % 1021,4 hPa 0,0 l/m 0,6 km/h (0 Bft) NO 45 -3,5 C -1,8 C 2,9 km/h (1 Bft)
11.12.2019 04:56 24,2 C -0,9 C -2,0 C -1,1 C 46 % 89 % 88 % 1021,4 hPa 0,0 l/m 1,0 km/h (0 Bft) NO 45 -3,7 C -2,0 C 5,6 km/h (1 Bft)
11.12.2019 04:54 24,2 C -0,9 C -2,0 C -1,1 C 46 % 89 % 88 % 1021,4 hPa 0,0 l/m 0,8 km/h (0 Bft) NO 45 -3,7 C -2,0 C 5,6 km/h (1 Bft)
11.12.2019 04:52 24,2 C -0,9 C -2,0 C -1,0 C 46 % 89 % 88 % 1021,4 hPa 0,0 l/m 1,0 km/h (0 Bft) O-SO 112 -3,7 C -2,0 C 2,4 km/h (1 Bft)
11.12.2019 04:50 24,2 C -0,9 C -2,0 C -1,1 C 46 % 89 % 88 % 1021,4 hPa 0,0 l/m 1,3 km/h (1 Bft) SO 135 -3,7 C -2,0 C 0,0 km/h (0 Bft)
11.12.2019 04:48 24,2 C -0,9 C -2,0 C -1,1 C 46 % 89 % 88 % 1021,4 hPa 0,0 l/m 1,6 km/h (1 Bft) N-NW 337 -3,7 C -2,0 C 4,8 km/h (1 Bft)
11.12.2019 04:46 24,2 C -0,9 C -2,0 C -1,3 C 46 % 89 % 88 % 1021,4 hPa 0,0 l/m 1,6 km/h (1 Bft) NO 45 -3,7 C -2,0 C 4,8 km/h (1 Bft)
11.12.2019 04:44 24,2 C -0,9 C -2,0 C -1,5 C 46 % 89 % 88 % 1021,4 hPa 0,0 l/m 1,3 km/h (1 Bft) O-NO 67 -3,7 C -2,0 C 3,1 km/h (1 Bft)
11.12.2019 04:42 24,2 C -0,9 C -2,1 C -1,5 C 46 % 89 % 88 % 1021,4 hPa 0,0 l/m 1,0 km/h (0 Bft) NO 45 -3,8 C -2,1 C 4,6 km/h (1 Bft)
11.12.2019 04:40 24,2 C -0,9 C -2,1 C -1,4 C 46 % 89 % 88 % 1021,6 hPa 0,0 l/m 0,8 km/h (0 Bft) O-NO 67 -3,8 C -2,1 C 4,6 km/h (1 Bft)
11.12.2019 04:38 24,2 C -0,9 C -2,1 C -1,4 C 46 % 89 % 88 % 1021,6 hPa 0,0 l/m 0,3 km/h (0 Bft) O-NO 67 -3,8 C -2,1 C 3,4 km/h (1 Bft)
11.12.2019 04:36 24,2 C -0,9 C -2,2 C -1,3 C 46 % 89 % 88 % 1021,6 hPa 0,0 l/m 0,5 km/h (0 Bft) NO 45 -3,9 C -2,2 C 2,9 km/h (1 Bft)
11.12.2019 04:34 24,2 C -0,9 C -2,2 C -1,3 C 46 % 89 % 88 % 1021,6 hPa 0,0 l/m 0,5 km/h (0 Bft) N-NO 22 -3,9 C -2,2 C 0,0 km/h (0 Bft)
11.12.2019 04:32 24,2 C -0,9 C -2,2 C -1,4 C 46 % 89 % 88 % 1021,6 hPa 0,0 l/m 0,5 km/h (0 Bft) O-SO 112 -3,9 C -2,2 C 0,0 km/h (0 Bft)
11.12.2019 04:30 24,2 C -1,2 C -2,2 C -1,5 C 46 % 89 % 87 % 1021,6 hPa 0,0 l/m 0,5 km/h (0 Bft) NO 45 -4,1 C -2,2 C 0,0 km/h (0 Bft)
11.12.2019 04:28 24,2 C -1,3 C -2,2 C -1,9 C 46 % 89 % 87 % 1021,6 hPa 0,0 l/m 0,5 km/h (0 Bft) N-NO 22 -4,1 C -2,2 C 2,4 km/h (1 Bft)
11.12.2019 04:26 24,2 C -1,4 C -2,2 C -1,9 C 46 % 89 % 87 % 1021,6 hPa 0,0 l/m 0,3 km/h (0 Bft) N-NO 22 -4,1 C -2,2 C 3,6 km/h (1 Bft)
11.12.2019 04:24 24,2 C -1,4 C -2,2 C -1,7 C 46 % 89 % 87 % 1021,6 hPa 0,0 l/m 0,2 km/h (0 Bft) O-NO 67 -4,1 C -2,2 C 3,6 km/h (1 Bft)
11.12.2019 04:22 24,2 C -1,6 C -2,4 C -1,5 C 46 % 89 % 87 % 1021,6 hPa 0,0 l/m 0,0 km/h (0 Bft) NO 45 -4,3 C -2,4 C 0,0 km/h (0 Bft)
11.12.2019 04:20 24,2 C -1,4 C -2,4 C -1,4 C 46 % 89 % 87 % 1022,2 hPa 0,0 l/m 0,0 km/h (0 Bft) O 90 -4,3 C -2,4 C 0,0 km/h (0 Bft)
11.12.2019 04:18 24,2 C -1,6 C -2,4 C -1,3 C 46 % 89 % 87 % 1022,2 hPa 0,0 l/m 0,0 km/h (0 Bft) S-SW 202 -4,3 C -2,4 C 0,0 km/h (0 Bft)
11.12.2019 04:16 24,2 C -1,4 C -2,4 C -1,3 C 46 % 89 % 87 % 1022,2 hPa 0,0 l/m 0,0 km/h (0 Bft) S-SW 202 -4,3 C -2,4 C 0,0 km/h (0 Bft)
11.12.2019 04:14 24,2 C -1,0 C -2,4 C -1,3 C 46 % 89 % 87 % 1022,2 hPa 0,0 l/m 0,0 km/h (0 Bft) S 180 -4,3 C -2,4 C 0,0 km/h (0 Bft)
11.12.2019 04:12 24,2 C -1,0 C -2,4 C -1,4 C 46 % 89 % 87 % 1022,2 hPa 0,0 l/m 0,0 km/h (0 Bft) S 180 -4,3 C -2,4 C 0,0 km/h (0 Bft)
11.12.2019 04:10 24,3 C -1,0 C -2,4 C -1,7 C 46 % 89 % 87 % 1022,2 hPa 0,0 l/m 0,0 km/h (0 Bft) S 180 -4,3 C -2,4 C 0,0 km/h (0 Bft)
11.12.2019 04:08 24,3 C -1,0 C -2,4 C -1,8 C 46 % 89 % 87 % 1022,2 hPa 0,0 l/m 0,0 km/h (0 Bft) S 180 -4,3 C -2,4 C 0,0 km/h (0 Bft)
11.12.2019 04:06 24,3 C -1,2 C -2,4 C -1,8 C 46 % 89 % 87 % 1022,2 hPa 0,0 l/m 0,0 km/h (0 Bft) S-SW 202 -4,3 C -2,4 C 0,0 km/h (0 Bft)
11.12.2019 04:04 24,3 C -1,4 C -2,4 C -1,7 C 46 % 89 % 87 % 1022,2 hPa 0,0 l/m 0,0 km/h (0 Bft) S-SW 202 -4,3 C -2,4 C 0,0 km/h (0 Bft)
11.12.2019 04:02 24,3 C -1,2 C -2,4 C -1,7 C 46 % 89 % 87 % 1022,2 hPa 0,0 l/m 0,0 km/h (0 Bft) S 180 -4,3 C -2,4 C 0,0 km/h (0 Bft)
11.12.2019 04:00 24,2 C -1,3 C -2,4 C -1,7 C 46 % 89 % 87 % 1022,2 hPa 0,0 l/m 0,0 km/h (0 Bft) O-SO 112 -4,3 C -2,4 C 0,0 km/h (0 Bft)
11.12.2019 03:58 24,3 C -1,6 C -2,4 C -1,9 C 46 % 89 % 87 % 1022,2 hPa 0,0 l/m 0,3 km/h (0 Bft) O-SO 112 -4,3 C -2,4 C 0,0 km/h (0 Bft)
11.12.2019 03:56 24,3 C -1,4 C -2,4 C -1,9 C 46 % 89 % 87 % 1022,2 hPa 0,0 l/m 0,8 km/h (0 Bft) W-SW 247 -4,3 C -2,4 C 3,4 km/h (1 Bft)
11.12.2019 03:54 24,3 C -1,0 C -2,4 C -2,1 C 46 % 89 % 87 % 1022,2 hPa 0,0 l/m 1,0 km/h (0 Bft) S-SO 157 -4,3 C -2,4 C 3,4 km/h (1 Bft)
11.12.2019 03:52 24,3 C -1,2 C -2,2 C -2,2 C 46 % 89 % 87 % 1022,2 hPa 0,0 l/m 1,0 km/h (0 Bft) SO 135 -4,1 C -2,2 C 0,0 km/h (0 Bft)
11.12.2019 03:50 24,3 C -1,4 C -2,2 C -2,4 C 46 % 88 % 87 % 1022,2 hPa 0,0 l/m 1,0 km/h (0 Bft) S-SO 157 -4,1 C -2,2 C 3,1 km/h (1 Bft)
11.12.2019 03:48 24,3 C -1,6 C -2,2 C -2,2 C 46 % 88 % 87 % 1022,2 hPa 0,0 l/m 1,0 km/h (0 Bft) N-NO 22 -4,1 C -2,2 C 5,1 km/h (1 Bft)
11.12.2019 03:46 24,3 C -1,6 C -2,1 C -1,8 C 46 % 88 % 87 % 1022,2 hPa 0,0 l/m 0,6 km/h (0 Bft) NW 315 -4,0 C -2,1 C 5,1 km/h (1 Bft)
11.12.2019 03:44 24,3 C -1,6 C -2,1 C -1,7 C 46 % 88 % 87 % 1022,2 hPa 0,0 l/m 0,5 km/h (0 Bft) N-NO 22 -4,0 C -2,1 C 3,1 km/h (1 Bft)
11.12.2019 03:42 24,3 C -1,3 C -2,1 C -1,7 C 46 % 89 % 87 % 1022,2 hPa 0,0 l/m 1,1 km/h (1 Bft) O-NO 67 -4,0 C -2,1 C 0,0 km/h (0 Bft)
11.12.2019 03:40 24,3 C -1,3 C -2,1 C -1,7 C 46 % 88 % 87 % 1022,8 hPa 0,0 l/m 1,3 km/h (1 Bft) O 90 -4,0 C -2,1 C 0,0 km/h (0 Bft)
11.12.2019 03:38 24,3 C -1,3 C -2,1 C -1,7 C 46 % 88 % 87 % 1022,8 hPa 0,0 l/m 1,3 km/h (1 Bft) SW 225 -4,0 C -2,1 C 2,4 km/h (1 Bft)
11.12.2019 03:36 24,3 C -1,2 C -2,1 C -1,7 C 46 % 88 % 87 % 1022,8 hPa 0,0 l/m 1,3 km/h (1 Bft) N 360 -4,0 C -2,1 C 3,6 km/h (1 Bft)
11.12.2019 03:34 24,3 C -1,0 C -2,1 C -1,7 C 46 % 89 % 87 % 1022,8 hPa 0,0 l/m 1,1 km/h (1 Bft) N-NW 337 -4,0 C -2,1 C 4,8 km/h (1 Bft)
11.12.2019 03:32 24,3 C -0,8 C -2,1 C -1,5 C 46 % 89 % 87 % 1022,8 hPa 0,0 l/m 0,6 km/h (0 Bft) NW 315 -4,0 C -2,1 C 4,8 km/h (1 Bft)
11.12.2019 03:30 24,2 C -0,8 C -2,1 C -1,3 C 46 % 89 % 87 % 1022,8 hPa 0,0 l/m 0,0 km/h (0 Bft) N-NW 337 -4,0 C -2,1 C 3,1 km/h (1 Bft)
11.12.2019 03:28 24,2 C -0,8 C -2,1 C -1,1 C 46 % 89 % 87 % 1022,8 hPa 0,0 l/m 0,0 km/h (0 Bft) O-SO 112 -4,0 C -2,1 C 0,0 km/h (0 Bft)
11.12.2019 03:26 24,2 C -0,8 C -2,1 C -1,1 C 46 % 89 % 87 % 1022,8 hPa 0,0 l/m 0,2 km/h (0 Bft) O-SO 112 -4,0 C -2,1 C 0,0 km/h (0 Bft)
11.12.2019 03:24 24,2 C -0,9 C -2,1 C -1,3 C 46 % 89 % 87 % 1022,8 hPa 0,0 l/m 0,5 km/h (0 Bft) O-SO 112 -4,0 C -2,1 C 0,0 km/h (0 Bft)
11.12.2019 03:22 24,2 C -1,0 C -2,2 C -1,3 C 46 % 88 % 87 % 1022,8 hPa 0,0 l/m 1,0 km/h (0 Bft) O-SO 112 -4,1 C -2,2 C 0,0 km/h (0 Bft)
11.12.2019 03:20 24,4 C -1,0 C -2,2 C -1,4 C 46 % 89 % 87 % 1023,1 hPa 0,0 l/m 1,3 km/h (1 Bft) S-SO 157 -4,1 C -2,2 C 2,7 km/h (1 Bft)
11.12.2019 03:18 24,2 C -0,6 C -2,2 C -1,4 C 46 % 89 % 87 % 1023,1 hPa 0,0 l/m 1,8 km/h (1 Bft) S-SO 157 -4,1 C -2,2 C 2,7 km/h (1 Bft)
11.12.2019 03:16 24,2 C -0,9 C -2,2 C -1,5 C 46 % 89 % 87 % 1023,1 hPa 0,0 l/m 2,1 km/h (1 Bft) SO 135 -4,1 C -2,2 C 4,1 km/h (1 Bft)
11.12.2019 03:14 24,4 C -0,8 C -2,2 C -1,5 C 46 % 89 % 87 % 1023,1 hPa 0,0 l/m 2,4 km/h (1 Bft) N-NO 22 -4,1 C -2,2 C 8,4 km/h (2 Bft)
11.12.2019 03:12 24,4 C -0,6 C -2,2 C -1,5 C 46 % 89 % 87 % 1023,1 hPa 0,0 l/m 2,3 km/h (1 Bft) O 90 -4,1 C -2,2 C 4,1 km/h (1 Bft)
11.12.2019 03:10 24,4 C -0,6 C -2,2 C -1,5 C 46 % 89 % 87 % 1023,1 hPa 0,0 l/m 2,1 km/h (1 Bft) O-SO 112 -4,1 C -2,2 C 5,1 km/h (1 Bft)
11.12.2019 03:08 24,2 C -1,0 C -2,4 C -1,5 C 46 % 88 % 87 % 1023,1 hPa 0,0 l/m 1,9 km/h (1 Bft) SO 135 -4,3 C -2,4 C 8,4 km/h (2 Bft)
11.12.2019 03:06 24,4 C -1,0 C -2,4 C -1,7 C 46 % 88 % 87 % 1023,1 hPa 0,0 l/m 1,9 km/h (1 Bft) SO 135 -4,3 C -2,4 C 8,4 km/h (2 Bft)
11.12.2019 03:04 24,4 C -1,0 C -2,4 C -1,7 C 46 % 88 % 87 % 1023,1 hPa 0,0 l/m 1,8 km/h (1 Bft) W-SW 247 -4,3 C -2,4 C 6,5 km/h (2 Bft)
11.12.2019 03:02 24,4 C -1,0 C -2,4 C -1,8 C 46 % 88 % 87 % 1023,1 hPa 0,0 l/m 1,8 km/h (1 Bft) SO 135 -4,3 C -2,4 C 3,1 km/h (1 Bft)
11.12.2019 03:00 24,4 C -1,0 C -2,4 C -1,9 C 46 % 88 % 87 % 1023,2 hPa 0,0 l/m 1,9 km/h (1 Bft) S 180 -4,3 C -2,4 C 4,1 km/h (1 Bft)
11.12.2019 02:58 24,4 C -1,0 C -2,5 C -2,1 C 46 % 88 % 87 % 1023,2 hPa 0,0 l/m 1,8 km/h (1 Bft) S 180 -4,4 C -2,5 C 4,1 km/h (1 Bft)
11.12.2019 02:56 24,4 C -1,0 C -2,4 C -2,2 C 46 % 88 % 87 % 1023,2 hPa 0,0 l/m 1,4 km/h (1 Bft) S-SO 157 -4,3 C -2,4 C 6,3 km/h (2 Bft)
11.12.2019 02:54 24,4 C -1,0 C -2,5 C -2,4 C 46 % 88 % 87 % 1023,2 hPa 0,0 l/m 1,1 km/h (1 Bft) S-SO 157 -4,4 C -2,5 C 6,3 km/h (2 Bft)
11.12.2019 02:52 24,4 C -1,0 C -2,4 C -2,6 C 46 % 88 % 87 % 1023,2 hPa 0,0 l/m 0,8 km/h (0 Bft) S-SO 157 -4,3 C -2,4 C 3,6 km/h (1 Bft)
11.12.2019 02:50 24,4 C -1,0 C -2,5 C -2,8 C 46 % 88 % 87 % 1023,2 hPa 0,0 l/m 0,5 km/h (0 Bft) S 180 -4,4 C -2,5 C 3,4 km/h (1 Bft)
11.12.2019 02:48 24,4 C -1,0 C -2,5 C -3,0 C 46 % 88 % 87 % 1023,2 hPa 0,0 l/m 0,3 km/h (0 Bft) S 180 -4,4 C -2,5 C 2,4 km/h (1 Bft)
11.12.2019 02:46 24,4 C -1,0 C -2,6 C -3,2 C 46 % 88 % 86 % 1023,2 hPa 0,0 l/m 0,6 km/h (0 Bft) S-SO 157 -4,6 C -2,6 C 0,0 km/h (0 Bft)
11.12.2019 02:44 24,4 C -1,0 C -2,6 C -3,3 C 46 % 88 % 86 % 1023,2 hPa 0,0 l/m 0,6 km/h (0 Bft) S 180 -4,6 C -2,6 C 4,1 km/h (1 Bft)
11.12.2019 02:42 24,4 C -1,0 C -2,6 C -3,3 C 46 % 88 % 86 % 1023,2 hPa 0,0 l/m 0,6 km/h (0 Bft) SO 135 -4,6 C -2,6 C 0,0 km/h (0 Bft)
11.12.2019 02:40 24,4 C -1,0 C -2,6 C -3,2 C 46 % 88 % 86 % 1023,6 hPa 0,0 l/m 0,6 km/h (0 Bft) S 180 -4,6 C -2,6 C 3,4 km/h (1 Bft)
11.12.2019 02:38 24,4 C -1,0 C -2,5 C -3,0 C 46 % 88 % 86 % 1023,6 hPa 0,0 l/m 0,6 km/h (0 Bft) S 180 -4,5 C -2,5 C 3,4 km/h (1 Bft)
11.12.2019 02:36 24,4 C -1,0 C -2,4 C -3,2 C 46 % 88 % 86 % 1023,6 hPa 0,0 l/m 0,3 km/h (0 Bft) S 180 -4,4 C -2,4 C 3,1 km/h (1 Bft)
11.12.2019 02:34 24,4 C -1,0 C -2,2 C -3,6 C 46 % 88 % 87 % 1023,6 hPa 0,0 l/m 0,2 km/h (0 Bft) S 180 -4,1 C -2,2 C 0,0 km/h (0 Bft)
11.12.2019 02:32 24,4 C -1,0 C -2,1 C -3,5 C 46 % 88 % 87 % 1023,6 hPa 0,0 l/m 0,3 km/h (0 Bft) SO 135 -4,0 C -2,1 C 0,0 km/h (0 Bft)
11.12.2019 02:30 24,4 C -1,0 C -2,0 C -3,6 C 46 % 88 % 87 % 1023,6 hPa 0,0 l/m 0,3 km/h (0 Bft) O-NO 67 -3,9 C -2,0 C 2,4 km/h (1 Bft)
11.12.2019 02:28 24,4 C -1,0 C -1,8 C -4,6 C 46 % 88 % 87 % 1023,6 hPa 0,0 l/m 0,3 km/h (0 Bft) O 90 -3,7 C -1,8 C 2,4 km/h (1 Bft)
11.12.2019 02:26 24,4 C -1,1 C -2,0 C -4,8 C 46 % 88 % 87 % 1023,6 hPa 0,0 l/m 0,3 km/h (0 Bft) N-NO 22 -3,9 C -2,0 C 0,0 km/h (0 Bft)
11.12.2019 02:24 24,4 C -1,3 C -2,0 C -4,6 C 46 % 88 % 87 % 1023,6 hPa 0,0 l/m 0,3 km/h (0 Bft) N 360 -3,9 C -2,0 C 3,1 km/h (1 Bft)
11.12.2019 02:22 24,4 C -1,3 C -2,0 C -4,4 C 46 % 88 % 86 % 1023,6 hPa 0,0 l/m 0,2 km/h (0 Bft) N-NW 337 -4,0 C -2,0 C 3,1 km/h (1 Bft)
11.12.2019 02:20 24,4 C -1,3 C -2,0 C -4,1 C 46 % 88 % 86 % 1024,1 hPa 0,0 l/m 0,0 km/h (0 Bft) N-NO 22 -4,0 C -2,0 C 0,0 km/h (0 Bft)
11.12.2019 02:18 24,4 C -1,4 C -2,0 C -3,7 C 46 % 88 % 86 % 1024,1 hPa 0,0 l/m 0,0 km/h (0 Bft) NW 315 -4,0 C -2,0 C 0,0 km/h (0 Bft)
11.12.2019 02:16 24,4 C -1,3 C -1,8 C -3,2 C 46 % 88 % 86 % 1024,1 hPa 0,0 l/m 0,2 km/h (0 Bft) NW 315 -3,8 C -1,8 C 0,0 km/h (0 Bft)
11.12.2019 02:14 24,4 C -1,1 C -1,8 C -3,0 C 46 % 88 % 86 % 1024,1 hPa 0,0 l/m 0,5 km/h (0 Bft) W 270 -3,8 C -1,8 C 0,0 km/h (0 Bft)
11.12.2019 02:12 24,4 C -1,1 C -1,8 C -3,2 C 46 % 88 % 86 % 1024,1 hPa 0,0 l/m 0,6 km/h (0 Bft) NW 315 -3,8 C -1,8 C 0,0 km/h (0 Bft)
11.12.2019 02:10 24,4 C -1,0 C -1,8 C -3,2 C 46 % 88 % 86 % 1024,1 hPa 0,0 l/m 0,6 km/h (0 Bft) N-NO 22 -3,8 C -1,8 C 0,0 km/h (0 Bft)
11.12.2019 02:08 24,5 C -1,1 C -1,8 C -2,6 C 46 % 88 % 86 % 1024,1 hPa 0,0 l/m 0,8 km/h (0 Bft) NW 315 -3,8 C -1,8 C 3,4 km/h (1 Bft)
11.12.2019 02:06 24,5 C -1,3 C -1,8 C -2,4 C 46 % 88 % 86 % 1024,1 hPa 0,0 l/m 1,0 km/h (0 Bft) W-SW 247 -3,8 C -1,8 C 3,4 km/h (1 Bft)
11.12.2019 02:04 24,5 C -1,7 C -1,8 C -2,6 C 46 % 88 % 86 % 1024,1 hPa 0,0 l/m 0,6 km/h (0 Bft) O-NO 67 -3,8 C -1,8 C 3,1 km/h (1 Bft)
11.12.2019 02:02 24,5 C -1,7 C -1,8 C -2,8 C 46 % 88 % 86 % 1024,1 hPa 0,0 l/m 0,3 km/h (0 Bft) O-SO 112 -3,8 C -1,8 C 3,1 km/h (1 Bft)
11.12.2019 02:00 24,5 C -1,5 C -1,8 C -2,5 C 46 % 88 % 86 % 1024,3 hPa 0,0 l/m 0,3 km/h (0 Bft) O-SO 112 -3,8 C -1,8 C 2,9 km/h (1 Bft)
11.12.2019 01:58 24,5 C -1,8 C -2,0 C -3,3 C 46 % 88 % 86 % 1024,3 hPa 0,0 l/m 0,3 km/h (0 Bft) O-SO 112 -4,0 C -2,0 C 2,9 km/h (1 Bft)
11.12.2019 01:56 24,5 C -1,7 C -2,1 C -4,0 C 46 % 88 % 86 % 1024,3 hPa 0,0 l/m 0,0 km/h (0 Bft) O-SO 112 -4,1 C -2,1 C 0,0 km/h (0 Bft)
11.12.2019 01:54 24,5 C -1,7 C -2,1 C -5,0 C 46 % 88 % 86 % 1024,3 hPa 0,0 l/m 0,0 km/h (0 Bft) O-SO 112 -4,1 C -2,1 C 0,0 km/h (0 Bft)
11.12.2019 01:52 24,5 C -1,7 C -2,1 C -5,3 C 46 % 88 % 86 % 1024,3 hPa 0,0 l/m 0,0 km/h (0 Bft) O-SO 112 -4,1 C -2,1 C 0,0 km/h (0 Bft)
11.12.2019 01:50 24,5 C -1,8 C -2,2 C -5,8 C 46 % 88 % 86 % 1024,3 hPa 0,0 l/m 0,0 km/h (0 Bft) O-SO 112 -4,2 C -2,2 C 0,0 km/h (0 Bft)
11.12.2019 01:48 24,5 C -1,8 C -2,0 C -5,8 C 46 % 88 % 86 % 1024,3 hPa 0,0 l/m 0,0 km/h (0 Bft) O-SO 112 -4,0 C -2,0 C 0,0 km/h (0 Bft)
11.12.2019 01:46 24,5 C -1,9 C -2,0 C -5,6 C 46 % 88 % 86 % 1024,3 hPa 0,0 l/m 0,0 km/h (0 Bft) O-SO 112 -4,0 C -2,0 C 0,0 km/h (0 Bft)
11.12.2019 01:44 24,5 C -1,8 C -2,0 C -5,8 C 46 % 88 % 86 % 1024,3 hPa 0,0 l/m 0,0 km/h (0 Bft) O-SO 112 -4,0 C -2,0 C 0,0 km/h (0 Bft)
11.12.2019 01:42 24,5 C -1,8 C -1,7 C -5,3 C 46 % 88 % 86 % 1024,3 hPa 0,0 l/m 0,0 km/h (0 Bft) O-SO 112 -3,7 C -1,7 C 0,0 km/h (0 Bft)
11.12.2019 01:40 24,5 C -1,8 C -1,7 C -5,3 C 46 % 88 % 86 % 1024,9 hPa 0,0 l/m 0,0 km/h (0 Bft) O-SO 112 -3,7 C -1,7 C 0,0 km/h (0 Bft)
11.12.2019 01:38 24,5 C -1,8 C -1,6 C -5,0 C 46 % 88 % 86 % 1024,9 hPa 0,0 l/m 0,0 km/h (0 Bft) O-SO 112 -3,6 C -1,6 C 0,0 km/h (0 Bft)
11.12.2019 01:36 24,5 C -1,8 C -1,6 C -4,1 C 46 % 88 % 86 % 1024,9 hPa 0,0 l/m 0,0 km/h (0 Bft) O-SO 112 -3,6 C -1,6 C 0,0 km/h (0 Bft)
11.12.2019 01:34 24,5 C -1,7 C -1,6 C -3,9 C 46 % 88 % 86 % 1024,9 hPa 0,0 l/m 0,0 km/h (0 Bft) O-SO 112 -3,6 C -1,6 C 0,0 km/h (0 Bft)
11.12.2019 01:32 24,5 C -1,8 C -1,4 C -3,7 C 46 % 88 % 86 % 1024,9 hPa 0,0 l/m 0,0 km/h (0 Bft) O-SO 112 -3,4 C -1,4 C 0,0 km/h (0 Bft)
11.12.2019 01:30 24,5 C -1,9 C -1,4 C -4,1 C 46 % 88 % 86 % 1024,9 hPa 0,0 l/m 0,0 km/h (0 Bft) O-SO 112 -3,4 C -1,4 C 0,0 km/h (0 Bft)
11.12.2019 01:28 24,5 C -2,1 C -1,4 C -5,0 C 46 % 88 % 86 % 1024,9 hPa 0,0 l/m 0,0 km/h (0 Bft) O-SO 112 -3,4 C -1,4 C 0,0 km/h (0 Bft)
11.12.2019 01:26 24,6 C -2,1 C -1,4 C -5,8 C 46 % 88 % 86 % 1024,9 hPa 0,0 l/m 0,0 km/h (0 Bft) O-SO 112 -3,4 C -1,4 C 0,0 km/h (0 Bft)
11.12.2019 01:24 24,5 C -2,1 C -1,4 C -5,4 C 46 % 88 % 86 % 1024,9 hPa 0,0 l/m 0,0 km/h (0 Bft) O-SO 112 -3,4 C -1,4 C 0,0 km/h (0 Bft)
11.12.2019 01:22 24,6 C -1,9 C -1,4 C -5,1 C 46 % 88 % 86 % 1024,9 hPa 0,0 l/m 0,0 km/h (0 Bft) O-SO 112 -3,4 C -1,4 C 0,0 km/h (0 Bft)
11.12.2019 01:20 24,6 C -1,9 C -1,4 C -5,1 C 46 % 88 % 86 % 1024,7 hPa 0,0 l/m 0,0 km/h (0 Bft) N-NW 337 -3,4 C -1,4 C 0,0 km/h (0 Bft)
11.12.2019 01:18 24,5 C -1,3 C -1,4 C -4,7 C 46 % 88 % 86 % 1024,7 hPa 0,0 l/m 0,0 km/h (0 Bft) N-NW 337 -3,4 C -1,4 C 0,0 km/h (0 Bft)
11.12.2019 01:16 24,6 C -1,3 C -1,3 C -4,4 C 46 % 88 % 86 % 1024,7 hPa 0,0 l/m 0,0 km/h (0 Bft) N-NW 337 -3,3 C -1,3 C 0,0 km/h (0 Bft)
11.12.2019 01:14 24,6 C -1,3 C -1,3 C -4,7 C 46 % 88 % 86 % 1024,7 hPa 0,0 l/m 0,0 km/h (0 Bft) N-NW 337 -3,3 C -1,3 C 0,0 km/h (0 Bft)
11.12.2019 01:12 24,5 C -1,3 C -1,2 C -4,6 C 46 % 88 % 86 % 1024,7 hPa 0,0 l/m 0,0 km/h (0 Bft) N-NW 337 -3,2 C -1,2 C 0,0 km/h (0 Bft)
11.12.2019 01:10 24,6 C -1,3 C -1,2 C -3,8 C 46 % 88 % 86 % 1024,7 hPa 0,0 l/m 0,0 km/h (0 Bft) N-NW 337 -3,2 C -1,2 C 0,0 km/h (0 Bft)
11.12.2019 01:08 24,6 C -1,3 C -1,2 C -3,1 C 46 % 88 % 86 % 1024,7 hPa 0,0 l/m 0,0 km/h (0 Bft) NW 315 -3,2 C -1,2 C 0,0 km/h (0 Bft)
11.12.2019 01:06 24,6 C -1,3 C -1,2 C -3,2 C 46 % 88 % 86 % 1024,7 hPa 0,0 l/m 0,0 km/h (0 Bft) NW 315 -3,2 C -1,2 C 0,0 km/h (0 Bft)
11.12.2019 01:04 24,6 C -1,3 C -1,0 C -3,1 C 46 % 88 % 86 % 1024,7 hPa 0,0 l/m 0,0 km/h (0 Bft) NW 315 -3,0 C -1,0 C 0,0 km/h (0 Bft)
11.12.2019 01:02 24,6 C -1,3 C -1,0 C -3,2 C 46 % 88 % 86 % 1024,7 hPa 0,0 l/m 0,0 km/h (0 Bft) NW 315 -3,0 C -1,0 C 0,0 km/h (0 Bft)
11.12.2019 01:00 24,6 C -1,3 C -1,0 C -4,0 C 46 % 88 % 86 % 1025,0 hPa 0,0 l/m 0,0 km/h (0 Bft) N-NW 337 -3,0 C -1,0 C 0,0 km/h (0 Bft)
11.12.2019 00:58 24,6 C -1,3 C -1,0 C -4,3 C 46 % 88 % 86 % 1025,0 hPa 0,0 l/m 0,0 km/h (0 Bft) O-NO 67 -3,0 C -1,0 C 0,0 km/h (0 Bft)
11.12.2019 00:56 24,6 C -1,3 C -1,0 C -3,8 C 46 % 88 % 86 % 1025,0 hPa 0,0 l/m 0,0 km/h (0 Bft) N-NW 337 -3,0 C -1,0 C 0,0 km/h (0 Bft)
11.12.2019 00:54 24,6 C -1,3 C -1,0 C -2,9 C 46 % 88 % 86 % 1025,0 hPa 0,0 l/m 0,0 km/h (0 Bft) N-NW 337 -3,0 C -1,0 C 0,0 km/h (0 Bft)
11.12.2019 00:52 24,6 C -1,3 C -1,0 C -3,0 C 46 % 88 % 86 % 1025,0 hPa 0,0 l/m 0,0 km/h (0 Bft) N-NW 337 -3,0 C -1,0 C 0,0 km/h (0 Bft)
11.12.2019 00:50 24,6 C -1,3 C -1,0 C -3,2 C 46 % 88 % 86 % 1025,0 hPa 0,0 l/m 0,0 km/h (0 Bft) N-NW 337 -3,0 C -1,0 C 0,0 km/h (0 Bft)
11.12.2019 00:48 24,6 C -1,3 C -1,0 C -3,9 C 46 % 88 % 86 % 1025,0 hPa 0,0 l/m 0,0 km/h (0 Bft) N-NO 22 -3,0 C -1,0 C 0,0 km/h (0 Bft)
11.12.2019 00:46 24,6 C -1,3 C -1,0 C -4,2 C 46 % 88 % 86 % 1025,0 hPa 0,0 l/m 0,0 km/h (0 Bft) O-NO 67 -3,0 C -1,0 C 0,0 km/h (0 Bft)
11.12.2019 00:44 24,6 C -1,3 C -0,9 C -4,4 C 46 % 88 % 86 % 1025,0 hPa 0,0 l/m 0,0 km/h (0 Bft) SO 135 -2,9 C -0,9 C 0,0 km/h (0 Bft)
11.12.2019 00:42 24,6 C -1,3 C -0,9 C -3,8 C 46 % 88 % 86 % 1025,0 hPa 0,0 l/m 0,0 km/h (0 Bft) SO 135 -2,9 C -0,9 C 0,0 km/h (0 Bft)
11.12.2019 00:40 24,6 C -1,3 C -0,9 C -3,2 C 46 % 88 % 86 % 1025,1 hPa 0,0 l/m 0,0 km/h (0 Bft) SO 135 -2,9 C -0,9 C 0,0 km/h (0 Bft)
11.12.2019 00:38 24,6 C -1,3 C -0,9 C -2,8 C 46 % 88 % 86 % 1025,1 hPa 0,0 l/m 0,0 km/h (0 Bft) NW 315 -2,9 C -0,9 C 0,0 km/h (0 Bft)
11.12.2019 00:36 24,6 C -1,3 C -1,0 C -3,3 C 46 % 88 % 86 % 1025,1 hPa 0,0 l/m 0,0 km/h (0 Bft) NW 315 -3,0 C -1,0 C 0,0 km/h (0 Bft)
11.12.2019 00:34 24,6 C -1,1 C -0,9 C -3,8 C 46 % 88 % 86 % 1025,1 hPa 0,0 l/m 0,2 km/h (0 Bft) N-NO 22 -2,9 C -0,9 C 0,0 km/h (0 Bft)
11.12.2019 00:32 24,6 C -1,1 C -0,9 C -3,8 C 46 % 88 % 86 % 1025,1 hPa 0,0 l/m 0,3 km/h (0 Bft) NO 45 -2,9 C -0,9 C 0,0 km/h (0 Bft)
11.12.2019 00:30 24,6 C -1,0 C -0,9 C -3,5 C 46 % 88 % 86 % 1025,1 hPa 0,0 l/m 0,3 km/h (0 Bft) S-SO 157 -2,9 C -0,9 C 0,0 km/h (0 Bft)
11.12.2019 00:28 24,6 C -1,0 C -0,9 C -3,2 C 46 % 88 % 86 % 1025,1 hPa 0,0 l/m 0,5 km/h (0 Bft) S-SO 157 -2,9 C -0,9 C 0,0 km/h (0 Bft)
11.12.2019 00:26 24,6 C -1,3 C -0,9 C -3,1 C 46 % 88 % 86 % 1025,1 hPa 0,0 l/m 0,5 km/h (0 Bft) S-SO 157 -2,9 C -0,9 C 0,0 km/h (0 Bft)
11.12.2019 00:24 24,6 C -1,1 C -0,9 C -3,3 C 46 % 88 % 86 % 1025,1 hPa 0,0 l/m 0,6 km/h (0 Bft) S 180 -2,9 C -0,9 C 0,0 km/h (0 Bft)
11.12.2019 00:22 24,6 C -1,0 C -1,0 C -3,3 C 46 % 88 % 86 % 1025,1 hPa 0,0 l/m 0,6 km/h (0 Bft) S-SW 202 -3,0 C -1,0 C 0,0 km/h (0 Bft)
11.12.2019 00:20 24,7 C -0,9 C -1,0 C -3,1 C 46 % 88 % 86 % 1025,3 hPa 0,0 l/m 0,8 km/h (0 Bft) SW 225 -3,0 C -1,0 C 0,0 km/h (0 Bft)
11.12.2019 00:18 24,6 C -0,7 C -1,0 C -2,9 C 46 % 88 % 85 % 1025,3 hPa 0,0 l/m 0,5 km/h (0 Bft) SW 225 -3,2 C -1,0 C 0,0 km/h (0 Bft)
11.12.2019 00:16 24,6 C -0,9 C -1,0 C -2,7 C 46 % 88 % 85 % 1025,3 hPa 0,0 l/m 0,8 km/h (0 Bft) W-SW 247 -3,2 C -1,0 C 2,7 km/h (1 Bft)
11.12.2019 00:14 24,6 C -1,0 C -0,9 C -2,7 C 46 % 88 % 85 % 1025,3 hPa 0,0 l/m 0,8 km/h (0 Bft) W-SW 247 -3,1 C -0,9 C 4,1 km/h (1 Bft)
11.12.2019 00:12 24,6 C -1,0 C -1,0 C -3,1 C 46 % 88 % 85 % 1025,3 hPa 0,0 l/m 0,6 km/h (0 Bft) S 180 -3,2 C -1,0 C 4,1 km/h (1 Bft)
11.12.2019 00:10 24,6 C -1,3 C -1,0 C -2,8 C 46 % 88 % 85 % 1025,3 hPa 0,0 l/m 0,5 km/h (0 Bft) S 180 -3,2 C -1,0 C 2,4 km/h (1 Bft)
11.12.2019 00:08 24,7 C -1,5 C -0,9 C -2,8 C 46 % 88 % 85 % 1025,3 hPa 0,0 l/m 0,3 km/h (0 Bft) S 180 -3,1 C -0,9 C 2,4 km/h (1 Bft)
11.12.2019 00:06 24,7 C -1,7 C -0,9 C -3,3 C 46 % 88 % 85 % 1025,3 hPa 0,0 l/m 0,3 km/h (0 Bft) S 180 -3,1 C -0,9 C 2,4 km/h (1 Bft)
11.12.2019 00:04 24,7 C -1,5 C -0,8 C -4,0 C 46 % 88 % 85 % 1025,3 hPa 0,0 l/m 0,2 km/h (0 Bft) S 180 -3,0 C -0,8 C 0,0 km/h (0 Bft)
11.12.2019 00:02 24,7 C -1,6 C -0,8 C -4,3 C 46 % 88 % 85 % 1025,3 hPa 0,0 l/m 0,0 km/h (0 Bft) S 180 -3,0 C -0,8 C 0,0 km/h (0 Bft)
11.12.2019 00:00 24,7 C -1,4 C -0,8 C -3,8 C 46 % 88 % 85 % 1025,1 hPa 0,0 l/m 0,0 km/h (0 Bft) SO 135 -3,0 C -0,8 C 0,0 km/h (0 Bft)
_ Min-Zeit 07:30 20:02 02:40 01:26 10:48 13:14 14:16 20:02 - 00:00 - - 19:26 02:40 00:00
Minimum _ 23,9 C -2,3 C -2,6 C -5,8 C 44 % 79 % 67 % 1009,8 hPa - 0,0 km/h (0 Bft) - - -4,8 C -2,6 C 0,0 km/h (0 Bft)
_ Max-Zeit 16:54 13:26 13:34 13:32 00:00 03:10 09:18 00:02 11:58 03:14 - - 11:22 13:34 03:06
Maximum _ 24,8 C 4,2 C 2,3 C 3,1 C 46 % 89 % 90 % 1025,3 hPa 0,1 l/m 2,4 km/h
N-NO (1 Bft)
- - -1,6 C 2,3 C 8,4 km/h
SO (2 Bft)
Durchschnitt _ 24,4 C 0,0 C -0,6 C -1,8 C 45 % 86 % 81 % 1017,2 hPa #0,1 l/m 0,2 km/h (0 Bft) S - -3,5 C -0,6 C 0,8 km/h (0 Bft)